UAL876 RJTT-KSFO

Flight info

Callsign UAL876
Flight time 9h 5m
Altitude 35000
Route INUBO Y808 NOLAX Y814 AVBET OTR11 LEPKI 39N160E 40N170E 41N180E 42N170W/N0482F370 42N160W 42N150W 41N140W 39N130W DCT DACEM DCT PAINT PIRAT3
Aircraft B77W/H-SDE3FGHIJ1J4J5J7M1M3P2RWXYZ/LB1D1

Departure

Time 2026-05-06 15:49
Airport Tokyo Haneda International Airport (RJTT)

Arrival

Time 2026-05-07 00:54
Airport San Francisco International Airport (KSFO)
Time Latitude Longitude Altitude Speed Heading
2026-05-06 15:39 35.54357 139.77311 28 ft 0 kts 334°
2026-05-06 15:40 35.54371 139.77302 28 ft 5 kts 332°
2026-05-06 15:41 35.54399 139.77281 28 ft 5 kts 329°
2026-05-06 15:41 35.54433 139.77255 28 ft 6 kts 326°
2026-05-06 15:41 35.54470 139.77228 28 ft 6 kts 331°
2026-05-06 15:41 35.54509 139.77203 28 ft 6 kts 333°
2026-05-06 15:42 35.54546 139.77177 28 ft 6 kts 330°
2026-05-06 15:42 35.54584 139.77152 28 ft 6 kts 330°
2026-05-06 15:42 35.54625 139.77123 28 ft 9 kts 330°
2026-05-06 15:42 35.54701 139.77087 28 ft 12 kts
2026-05-06 15:43 35.54763 139.77156 28 ft 12 kts 60°
2026-05-06 15:43 35.54805 139.77250 28 ft 12 kts 62°
2026-05-06 15:43 35.54847 139.77343 28 ft 13 kts 59°
2026-05-06 15:43 35.54922 139.77407 28 ft 15 kts 351°
2026-05-06 15:44 35.55043 139.77330 28 ft 23 kts 329°
2026-05-06 15:44 35.55181 139.77233 28 ft 23 kts 329°
2026-05-06 15:44 35.55318 139.77134 28 ft 23 kts 330°
2026-05-06 15:44 35.55454 139.77035 28 ft 23 kts 329°
2026-05-06 15:45 35.55584 139.76983 28 ft 19 kts 20°
2026-05-06 15:45 35.55690 139.77073 29 ft 19 kts 35°
2026-05-06 15:45 35.55811 139.77178 28 ft 23 kts 34°
2026-05-06 15:45 35.55935 139.77301 28 ft 23 kts 55°
2026-05-06 15:46 35.56013 139.77471 28 ft 23 kts 60°
2026-05-06 15:46 35.56091 139.77641 28 ft 23 kts 59°
2026-05-06 15:46 35.56171 139.77811 26 ft 23 kts 60°
2026-05-06 15:46 35.56254 139.77978 28 ft 23 kts 59°
2026-05-06 15:47 35.56334 139.78147 28 ft 23 kts 60°
2026-05-06 15:47 35.56413 139.78317 28 ft 23 kts 60°
2026-05-06 15:47 35.56475 139.78449 28 ft 8 kts 61°
2026-05-06 15:47 35.56502 139.78505 28 ft 8 kts 59°
2026-05-06 15:48 35.56531 139.78563 28 ft 9 kts 58°
2026-05-06 15:48 35.56551 139.78668 28 ft 15 kts 114°
2026-05-06 15:48 35.56443 139.78763 28 ft 31 kts 149°
2026-05-06 15:48 35.56054 139.79036 28 ft 99 kts 149°
2026-05-06 15:49 35.55283 139.79581 29 ft 158 kts 150°
2026-05-06 15:49 35.54212 139.80342 164 ft 188 kts 152°
2026-05-06 15:49 35.53116 139.81115 840 ft 181 kts 147°
2026-05-06 15:49 35.52151 139.82242 1233 ft 197 kts 134°
2026-05-06 15:50 35.51231 139.83524 1712 ft 208 kts 135°
2026-05-06 15:50 35.50190 139.84915 1932 ft 233 kts 136°
2026-05-06 15:50 35.49037 139.86422 2342 ft 249 kts 137°
2026-05-06 15:50 35.47821 139.87985 2969 ft 257 kts 137°
2026-05-06 15:51 35.46570 139.89587 3660 ft 262 kts 136°
2026-05-06 15:51 35.45564 139.91470 4202 ft 274 kts 110°
2026-05-06 15:51 35.45465 139.93824 4860 ft 284 kts 77°
2026-05-06 15:51 35.46384 139.95973 5472 ft 289 kts 48°
2026-05-06 15:52 35.47785 139.97771 5949 ft 296 kts 42°
2026-05-06 15:52 35.49542 139.99092 6407 ft 298 kts 11°
2026-05-06 15:52 35.51566 139.99195 7118 ft 288 kts 345°
2026-05-06 15:52 35.52848 139.98824 7516 ft 287 kts 340°
2026-05-06 15:53 35.55455 139.97917 8333 ft 294 kts 339°
2026-05-06 15:53 35.56760 139.97459 8806 ft 295 kts 339°
2026-05-06 15:53 35.58736 139.96774 9498 ft 297 kts 339°
2026-05-06 15:53 35.60745 139.96106 10159 ft 299 kts 343°
2026-05-06 15:54 35.62867 139.95919 10454 ft 319 kts 359°
2026-05-06 15:54 35.65162 139.96135 10628 ft 342 kts
2026-05-06 15:54 35.67607 139.96397 10802 ft 364 kts
2026-05-06 15:54 35.70208 139.96614 11039 ft 384 kts
2026-05-06 15:55 35.72904 139.96770 11553 ft 388 kts 356°
2026-05-06 15:55 35.75543 139.96176 12003 ft 386 kts 335°
2026-05-06 15:55 35.78025 139.94882 12662 ft 390 kts 333°
2026-05-06 15:55 35.80552 139.93614 13547 ft 393 kts 335°
2026-05-06 15:56 35.83103 139.92389 14406 ft 395 kts 335°
2026-05-06 15:56 35.85688 139.91171 15007 ft 400 kts 335°
2026-05-06 15:56 35.88298 139.89946 15117 ft 404 kts 335°
2026-05-06 15:56 35.90921 139.88713 15125 ft 402 kts 336°
2026-05-06 15:57 35.93547 139.87477 15485 ft 406 kts 335°
2026-05-06 15:57 35.96234 139.86423 16115 ft 411 kts 348°
2026-05-06 15:57 35.99133 139.86545 16745 ft 426 kts 11°
2026-05-06 15:57 36.01897 139.87922 17556 ft 434 kts 28°
2026-05-06 15:58 36.04301 139.90218 18299 ft 442 kts 44°
2026-05-06 15:58 36.06144 139.93297 18838 ft 451 kts 61°
2026-05-06 15:58 36.07237 139.96954 19372 ft 459 kts 80°
2026-05-06 15:58 36.07491 140.00889 19774 ft 463 kts 89°
2026-05-06 15:59 36.07587 140.04904 20211 ft 472 kts 89°
2026-05-06 15:59 36.07666 140.08983 20789 ft 476 kts 89°
2026-05-06 15:59 36.07751 140.13093 21384 ft 481 kts 89°
2026-05-06 15:59 36.07851 140.17245 21911 ft 486 kts 89°
2026-05-06 16:00 36.07968 140.21448 22369 ft 494 kts 89°
2026-05-06 16:00 36.08099 140.25725 22768 ft 501 kts 89°
2026-05-06 16:00 36.08239 140.30058 23270 ft 506 kts 89°
2026-05-06 16:00 36.08383 140.34422 23753 ft 511 kts 89°
2026-05-06 16:01 36.08530 140.38865 23935 ft 524 kts 89°
2026-05-06 16:01 36.08677 140.43398 24235 ft 531 kts 89°
2026-05-06 16:01 36.08824 140.47973 24687 ft 534 kts 89°
2026-05-06 16:01 36.08970 140.52568 25166 ft 536 kts 90°
2026-05-06 16:02 36.09113 140.57183 25619 ft 539 kts 90°
2026-05-06 16:02 36.09254 140.61774 26023 ft 543 kts 90°
2026-05-06 16:02 36.09395 140.66461 26382 ft 548 kts 91°
2026-05-06 16:02 36.09535 140.71205 26627 ft 556 kts 91°
2026-05-06 16:03 36.09677 140.76064 26993 ft 560 kts 91°
2026-05-06 16:03 36.09814 140.80819 27436 ft 562 kts 91°
2026-05-06 16:03 36.09953 140.85652 27871 ft 564 kts 91°
2026-05-06 16:03 36.10091 140.90516 28261 ft 567 kts 91°
2026-05-06 16:04 36.10226 140.95404 28593 ft 571 kts 92°
2026-05-06 16:04 36.10361 141.00330 28913 ft 575 kts 92°
2026-05-06 16:04 36.10494 141.05279 29241 ft 578 kts 92°
2026-05-06 16:04 36.10626 141.10252 29644 ft 578 kts 92°
2026-05-06 16:05 36.10758 141.15223 30154 ft 578 kts 92°
2026-05-06 16:05 36.10887 141.20184 30572 ft 577 kts 92°
2026-05-06 16:05 36.11013 141.25133 30978 ft 576 kts 92°
2026-05-06 16:05 36.11137 141.30093 31364 ft 576 kts 92°
2026-05-06 16:06 36.11258 141.35028 31728 ft 576 kts 92°
2026-05-06 16:06 36.11377 141.39981 32096 ft 576 kts 92°
2026-05-06 16:06 36.11493 141.44933 32423 ft 576 kts 92°
2026-05-06 16:06 36.11608 141.49886 32790 ft 576 kts 92°
2026-05-06 16:07 36.11721 141.54825 33158 ft 575 kts 92°
2026-05-06 16:07 36.11832 141.59770 33521 ft 574 kts 92°
2026-05-06 16:07 36.11941 141.64712 33866 ft 574 kts 92°
2026-05-06 16:07 36.12048 141.69650 34192 ft 574 kts 92°
2026-05-06 16:08 36.12152 141.74579 34463 ft 574 kts 92°
2026-05-06 16:08 36.12254 141.79515 34706 ft 575 kts 92°
2026-05-06 16:08 36.12355 141.84465 34913 ft 577 kts 92°
2026-05-06 16:08 36.12453 141.89431 35030 ft 580 kts 92°
2026-05-06 16:09 36.12645 141.99438 35096 ft 580 kts 91°
2026-05-06 16:09 36.12832 142.09318 35099 ft 572 kts 92°
2026-05-06 16:10 36.13006 142.19169 35126 ft 574 kts 92°
2026-05-06 16:10 36.13170 142.29057 35151 ft 576 kts 92°
2026-05-06 16:11 36.13329 142.39002 35132 ft 579 kts 92°
2026-05-06 16:11 36.13481 142.48984 35125 ft 581 kts 92°
2026-05-06 16:12 36.13625 142.58968 35112 ft 579 kts 92°
2026-05-06 16:12 36.13761 142.68908 35122 ft 576 kts 92°
2026-05-06 16:13 36.13888 142.78789 35140 ft 573 kts 92°
2026-05-06 16:13 36.14004 142.88630 35121 ft 572 kts 92°
2026-05-06 16:14 36.14112 142.98393 35135 ft 571 kts 92°
2026-05-06 16:14 36.14212 143.08224 35141 ft 572 kts 92°
2026-05-06 16:15 36.14304 143.18067 35129 ft 572 kts 92°
2026-05-06 16:15 36.14390 143.27898 35142 ft 571 kts 92°
2026-05-06 16:16 36.14467 143.37725 35142 ft 572 kts 92°
2026-05-06 16:16 36.14536 143.47568 35146 ft 572 kts 92°
2026-05-06 16:17 36.14596 143.57413 35150 ft 572 kts 92°
2026-05-06 16:17 36.14649 143.67259 35152 ft 573 kts 92°
2026-05-06 16:18 36.14694 143.77105 35141 ft 572 kts 92°
2026-05-06 16:18 36.14730 143.86945 35146 ft 572 kts 92°
2026-05-06 16:19 36.14759 143.96769 35151 ft 572 kts 92°
2026-05-06 16:19 36.14780 144.06610 35152 ft 572 kts 92°
2026-05-06 16:20 36.14792 144.16452 35156 ft 572 kts 92°
2026-05-06 16:20 36.14797 144.26288 35134 ft 572 kts 93°
2026-05-06 16:21 36.14794 144.36104 35156 ft 569 kts 93°
2026-05-06 16:21 36.14783 144.45879 35153 ft 567 kts 93°
2026-05-06 16:22 36.14763 144.55614 35157 ft 565 kts 93°
2026-05-06 16:22 36.14736 144.65267 35164 ft 564 kts 93°
2026-05-06 16:23 36.14700 144.74972 35167 ft 564 kts 93°
2026-05-06 16:23 36.14657 144.84751 35168 ft 566 kts 93°
2026-05-06 16:24 36.14606 144.94484 35168 ft 565 kts 93°
2026-05-06 16:24 36.14548 145.04139 35173 ft 565 kts 93°
2026-05-06 16:25 36.14482 145.13858 35174 ft 565 kts 93°
2026-05-06 16:25 36.14408 145.23585 35174 ft 565 kts 93°
2026-05-06 16:26 36.14326 145.33311 35172 ft 566 kts 93°
2026-05-06 16:26 36.14319 145.43052 35178 ft 568 kts 88°
2026-05-06 16:27 36.15331 145.52736 35183 ft 567 kts 76°
2026-05-06 16:27 36.17332 145.62164 35179 ft 566 kts 74°
2026-05-06 16:28 36.19377 145.71569 35180 ft 566 kts 74°
2026-05-06 16:28 36.21366 145.80991 35186 ft 565 kts 74°
2026-05-06 16:29 36.23313 145.90415 35187 ft 565 kts 75°
2026-05-06 16:29 36.25246 145.99840 35191 ft 565 kts 75°
2026-05-06 16:30 36.26853 146.07690 35196 ft 566 kts 75°
2026-05-06 16:30 36.29112 146.18752 35193 ft 567 kts 75°
2026-05-06 16:31 36.31042 146.28246 35193 ft 568 kts 75°
2026-05-06 16:31 36.32971 146.37779 35192 ft 571 kts 75°
2026-05-06 16:32 36.34901 146.47359 35196 ft 574 kts 75°
2026-05-06 16:32 36.36833 146.56996 35198 ft 577 kts 75°
2026-05-06 16:33 36.38751 146.66601 35194 ft 578 kts 75°
2026-05-06 16:34 36.41632 146.81119 35191 ft 577 kts 75°
2026-05-06 16:34 36.43542 146.90795 35196 ft 576 kts 75°
2026-05-06 16:35 36.45439 147.00451 35193 ft 575 kts 75°
2026-05-06 16:35 36.47324 147.10087 35196 ft 573 kts 75°
2026-05-06 16:36 36.49197 147.19710 35202 ft 572 kts 75°
2026-05-06 16:36 36.51057 147.29307 35196 ft 570 kts 75°
2026-05-06 16:37 36.52902 147.38875 35204 ft 569 kts 75°
2026-05-06 16:37 36.54739 147.48442 35202 ft 568 kts 75°
2026-05-06 16:38 36.56566 147.58002 35206 ft 568 kts 75°
2026-05-06 16:38 36.58386 147.67570 35216 ft 569 kts 75°
2026-05-06 16:39 36.60202 147.77156 35214 ft 570 kts 75°
2026-05-06 16:39 36.61705 147.85130 35217 ft 570 kts 75°
2026-05-06 16:40 36.63512 147.94758 35214 ft 571 kts 75°
2026-05-06 16:40 36.65312 148.04395 35217 ft 572 kts 75°
2026-05-06 16:41 36.67398 148.15617 35217 ft 572 kts 75°
2026-05-06 16:41 36.68894 148.23710 35221 ft 572 kts 75°
2026-05-06 16:42 36.70673 148.33369 35216 ft 572 kts 75°
2026-05-06 16:42 36.72444 148.43033 35221 ft 572 kts 75°
2026-05-06 16:43 36.74207 148.52703 35232 ft 572 kts 76°
2026-05-06 16:43 36.75961 148.62372 35225 ft 572 kts 76°
2026-05-06 16:44 36.77707 148.72042 35229 ft 572 kts 76°
2026-05-06 16:44 36.79447 148.81725 35237 ft 572 kts 76°
2026-05-06 16:45 36.81166 148.91342 35230 ft 572 kts 76°
2026-05-06 16:45 36.82889 149.01028 35233 ft 572 kts 76°
2026-05-06 16:46 36.84604 149.10715 35238 ft 572 kts 76°
2026-05-06 16:46 36.86311 149.20408 35236 ft 572 kts 76°
2026-05-06 16:47 36.88011 149.30110 35237 ft 572 kts 76°
2026-05-06 16:47 36.89704 149.39823 35235 ft 572 kts 76°
2026-05-06 16:48 36.91387 149.49526 35235 ft 572 kts 76°
2026-05-06 16:48 36.93063 149.59240 35237 ft 572 kts 76°
2026-05-06 16:49 36.94732 149.68965 35242 ft 572 kts 76°
2026-05-06 16:49 36.96393 149.78695 35241 ft 572 kts 76°
2026-05-06 16:50 36.98046 149.88427 35243 ft 572 kts 76°
2026-05-06 16:50 36.99694 149.98168 35237 ft 573 kts 76°
2026-05-06 16:51 37.01809 150.07756 35251 ft 571 kts 70°
2026-05-06 16:51 37.04207 150.17220 35236 ft 571 kts 70°
2026-05-06 16:52 37.06600 150.26702 35240 ft 571 kts 70°
2026-05-06 16:52 37.08946 150.36197 35242 ft 571 kts 70°
2026-05-06 16:53 37.11250 150.45641 35243 ft 571 kts 70°
2026-05-06 16:53 37.13560 150.55150 35249 ft 571 kts 71°
2026-05-06 16:54 37.15868 150.64669 35244 ft 571 kts 71°
2026-05-06 16:54 37.18170 150.74196 35248 ft 571 kts 71°
2026-05-06 16:55 37.20468 150.83734 35251 ft 572 kts 71°
2026-05-06 16:55 37.22760 150.93297 35252 ft 573 kts 71°
2026-05-06 16:56 37.25047 151.02872 35255 ft 573 kts 71°
2026-05-06 16:56 37.27328 151.12461 35262 ft 575 kts 71°
2026-05-06 16:57 37.29612 151.22104 35266 ft 577 kts 71°
2026-05-06 16:57 37.31894 151.31775 35264 ft 578 kts 71°
2026-05-06 16:58 37.34175 151.41480 35266 ft 580 kts 71°
2026-05-06 16:58 37.36449 151.51198 35270 ft 580 kts 71°
2026-05-06 16:59 37.38722 151.60948 35267 ft 581 kts 71°
2026-05-06 16:59 37.40987 151.70713 35275 ft 582 kts 71°
2026-05-06 17:00 37.43249 151.80500 35269 ft 583 kts 71°
2026-05-06 17:00 37.45504 151.90297 35275 ft 583 kts 71°
2026-05-06 17:01 37.47750 152.00097 35274 ft 583 kts 71°
2026-05-06 17:01 37.49992 152.09917 35272 ft 583 kts 71°
2026-05-06 17:02 37.52210 152.19676 35275 ft 583 kts 71°
2026-05-06 17:02 37.54434 152.29499 35275 ft 583 kts 71°
2026-05-06 17:03 37.56651 152.39337 35274 ft 583 kts 71°
2026-05-06 17:03 37.58858 152.49172 35277 ft 583 kts 71°
2026-05-06 17:04 37.61058 152.59017 35285 ft 583 kts 71°
2026-05-06 17:04 37.63251 152.68872 35280 ft 584 kts 71°
2026-05-06 17:05 37.65436 152.78739 35281 ft 584 kts 71°
2026-05-06 17:05 37.67616 152.88619 35288 ft 585 kts 71°
2026-05-06 17:06 37.69795 152.98515 35289 ft 586 kts 71°
2026-05-06 17:06 37.71965 153.08435 35287 ft 586 kts 71°
2026-05-06 17:07 37.74124 153.18361 35277 ft 587 kts 71°
2026-05-06 17:07 37.76280 153.28317 35299 ft 587 kts 71°
2026-05-06 17:08 37.78428 153.38275 35297 ft 587 kts 71°
2026-05-06 17:08 37.80570 153.48250 35296 ft 588 kts 71°
2026-05-06 17:09 37.82704 153.58233 35288 ft 588 kts 71°
2026-05-06 17:09 37.84817 153.68158 35308 ft 588 kts 71°
2026-05-06 17:10 37.86935 153.78154 35307 ft 588 kts 71°
2026-05-06 17:10 37.89045 153.88160 35301 ft 588 kts 71°
2026-05-06 17:11 37.91145 153.98167 35295 ft 587 kts 71°
2026-05-06 17:11 37.93234 154.08166 35315 ft 587 kts 71°
2026-05-06 17:12 37.95314 154.18160 35303 ft 587 kts 71°
2026-05-06 17:12 37.97384 154.28160 35306 ft 587 kts 71°
2026-05-06 17:13 37.99445 154.38165 35315 ft 587 kts 71°
2026-05-06 17:13 38.01499 154.48176 35308 ft 587 kts 71°
2026-05-06 17:14 38.03545 154.58200 35308 ft 587 kts 71°
2026-05-06 17:14 38.05582 154.68223 35318 ft 587 kts 71°
2026-05-06 17:15 38.07610 154.78254 35308 ft 587 kts 71°
2026-05-06 17:15 38.09634 154.88309 35311 ft 588 kts 71°
2026-05-06 17:16 38.11636 154.98302 35314 ft 588 kts 71°
2026-05-06 17:16 38.13642 155.08366 35317 ft 589 kts 71°
2026-05-06 17:17 38.15645 155.18463 35312 ft 589 kts 71°
2026-05-06 17:17 38.17638 155.28560 35310 ft 589 kts 71°
2026-05-06 17:18 38.19623 155.38667 35313 ft 589 kts 71°
2026-05-06 17:18 38.21599 155.48776 35314 ft 589 kts 71°
2026-05-06 17:19 38.23568 155.58894 35316 ft 589 kts 71°
2026-05-06 17:19 38.25526 155.69018 35324 ft 589 kts 71°
2026-05-06 17:20 38.27476 155.79138 35318 ft 589 kts 71°
2026-05-06 17:20 38.29414 155.89251 35316 ft 588 kts 71°
2026-05-06 17:21 38.31344 155.99377 35323 ft 588 kts 71°
2026-05-06 17:21 38.33263 156.09491 35318 ft 587 kts 71°
2026-05-06 17:22 38.35172 156.19604 35320 ft 587 kts 71°
2026-05-06 17:22 38.37072 156.29721 35327 ft 587 kts 71°
2026-05-06 17:23 38.38961 156.39834 35313 ft 586 kts 71°
2026-05-06 17:23 38.40841 156.49946 35312 ft 586 kts 71°
2026-05-06 17:24 38.42710 156.60054 35331 ft 586 kts 71°
2026-05-06 17:24 38.44570 156.70167 35313 ft 585 kts 71°
2026-05-06 17:25 38.46408 156.80210 35308 ft 585 kts 71°
2026-05-06 17:25 38.48249 156.90321 35322 ft 584 kts 71°
2026-05-06 17:26 38.50077 157.00415 35312 ft 584 kts 71°
2026-05-06 17:26 38.51897 157.10515 35310 ft 583 kts 71°
2026-05-06 17:27 38.53717 157.20670 35317 ft 583 kts 71°
2026-05-06 17:27 38.55503 157.30688 35320 ft 582 kts 71°
2026-05-06 17:28 38.57288 157.40758 35310 ft 581 kts 71°
2026-05-06 17:28 38.59063 157.50820 35317 ft 580 kts 71°
2026-05-06 17:29 38.60827 157.60874 35331 ft 579 kts 71°
2026-05-06 17:29 38.62295 157.69281 35322 ft 578 kts 71°
2026-05-06 17:30 38.64027 157.79255 35316 ft 578 kts 71°
2026-05-06 17:30 38.65760 157.89282 35343 ft 577 kts 71°
2026-05-06 17:31 38.67482 157.99305 35320 ft 576 kts 72°
2026-05-06 17:31 38.69192 158.09313 35321 ft 575 kts 72°
2026-05-06 17:32 38.70894 158.19321 35323 ft 575 kts 72°
2026-05-06 17:32 38.72585 158.29322 35326 ft 575 kts 72°
2026-05-06 17:33 38.74265 158.39320 35317 ft 574 kts 72°
2026-05-06 17:33 38.75935 158.49308 35317 ft 573 kts 72°
2026-05-06 17:34 38.77593 158.59282 35320 ft 572 kts 72°
2026-05-06 17:34 38.79242 158.69257 35318 ft 572 kts 72°
2026-05-06 17:35 38.80884 158.79239 35325 ft 572 kts 72°
2026-05-06 17:35 38.82517 158.89230 35344 ft 572 kts 73°
2026-05-06 17:36 38.84947 159.04207 35318 ft 571 kts 73°
2026-05-06 17:36 38.86542 159.14107 35321 ft 570 kts 73°
2026-05-06 17:37 38.88148 159.24125 35332 ft 569 kts 73°
2026-05-06 17:37 38.89720 159.33991 35327 ft 568 kts 73°
2026-05-06 17:38 38.91293 159.43924 35322 ft 567 kts 73°
2026-05-06 17:38 38.92854 159.53835 35333 ft 567 kts 73°
2026-05-06 17:39 38.94409 159.63766 35328 ft 567 kts 73°
2026-05-06 17:39 38.95955 159.73699 35328 ft 568 kts 74°
2026-05-06 17:40 38.97494 159.83654 35331 ft 568 kts 74°
2026-05-06 17:40 38.99027 159.93623 35329 ft 569 kts 74°
2026-05-06 17:41 39.00548 160.03614 35329 ft 570 kts 74°
2026-05-06 17:41 39.02001 160.13651 35331 ft 571 kts 75°
2026-05-06 17:42 39.03422 160.23700 35327 ft 572 kts 75°
2026-05-06 17:42 39.04845 160.33779 35328 ft 573 kts 75°
2026-05-06 17:43 39.06267 160.43861 35331 ft 573 kts 75°
2026-05-06 17:43 39.07685 160.53958 35335 ft 573 kts 75°
2026-05-06 17:44 39.09096 160.64077 35340 ft 575 kts 75°
2026-05-06 17:44 39.10490 160.74154 35337 ft 576 kts 75°
2026-05-06 17:45 39.11887 160.84309 35339 ft 577 kts 75°
2026-05-06 17:45 39.13278 160.94486 35342 ft 578 kts 75°
2026-05-06 17:46 39.14664 161.04702 35338 ft 579 kts 75°
2026-05-06 17:46 39.16043 161.14940 35335 ft 580 kts 75°
2026-05-06 17:47 39.17415 161.25193 35347 ft 581 kts 75°
2026-05-06 17:47 39.18781 161.35463 35337 ft 582 kts 75°
2026-05-06 17:48 39.20137 161.45736 35339 ft 582 kts 76°
2026-05-06 17:48 39.21484 161.56022 35337 ft 582 kts 76°
2026-05-06 17:49 39.22823 161.66317 35340 ft 582 kts 75°
2026-05-06 17:49 39.24152 161.76597 35314 ft 580 kts 76°
2026-05-06 17:50 39.25460 161.86821 35328 ft 576 kts 76°
2026-05-06 17:50 39.26757 161.97009 35331 ft 575 kts 76°
2026-05-06 17:51 39.28044 162.07178 35339 ft 574 kts 76°
2026-05-06 17:51 39.29321 162.17346 35345 ft 574 kts 76°
2026-05-06 17:52 39.30592 162.27539 35364 ft 575 kts 76°
2026-05-06 17:52 39.31856 162.37755 35354 ft 577 kts 76°
2026-05-06 17:53 39.33114 162.48003 35353 ft 579 kts 76°
2026-05-06 17:53 39.34369 162.58300 35349 ft 580 kts 76°
2026-05-06 17:54 39.35613 162.68598 35354 ft 580 kts 76°
2026-05-06 17:54 39.36849 162.78903 35347 ft 580 kts 76°
2026-05-06 17:55 39.38076 162.89205 35349 ft 580 kts 76°
2026-05-06 17:55 39.39282 162.99421 35363 ft 579 kts 76°
2026-05-06 17:56 39.40486 163.09693 35345 ft 577 kts 76°
2026-05-06 17:56 39.41679 163.19950 35344 ft 576 kts 76°
2026-05-06 17:57 39.42859 163.30176 35377 ft 575 kts 76°
2026-05-06 17:57 39.44028 163.40393 35352 ft 574 kts 76°
2026-05-06 17:58 39.45187 163.50600 35347 ft 573 kts 76°
2026-05-06 17:58 39.46335 163.60794 35350 ft 572 kts 77°
2026-05-06 17:59 39.47474 163.70980 35360 ft 572 kts 77°
2026-05-06 17:59 39.48603 163.81163 35342 ft 572 kts 77°
2026-05-06 18:00 39.49723 163.91350 35352 ft 571 kts 77°
2026-05-06 18:00 39.50834 164.01541 35365 ft 572 kts 77°
2026-05-06 18:01 39.51935 164.11736 35352 ft 572 kts 77°
2026-05-06 18:01 39.53027 164.21926 35349 ft 571 kts 77°
2026-05-06 18:02 39.54110 164.32110 35352 ft 571 kts 77°
2026-05-06 18:02 39.55182 164.42290 35358 ft 570 kts 77°
2026-05-06 18:03 39.56244 164.52452 35354 ft 569 kts 77°
2026-05-06 18:03 39.57296 164.62609 35353 ft 568 kts 77°
2026-05-06 18:04 39.58336 164.72738 35383 ft 566 kts 77°
2026-05-06 18:04 39.59365 164.82847 35356 ft 564 kts 77°
2026-05-06 18:05 39.60380 164.92918 35344 ft 562 kts 78°
2026-05-06 18:05 39.61382 165.02943 35353 ft 560 kts 78°
2026-05-06 18:06 39.62376 165.12957 35364 ft 559 kts 78°
2026-05-06 18:06 39.63351 165.22887 35350 ft 558 kts 78°
2026-05-06 18:07 39.64323 165.32865 35347 ft 557 kts 78°
2026-05-06 18:07 39.65292 165.42906 35345 ft 557 kts 78°
2026-05-06 18:08 39.66239 165.52811 35348 ft 558 kts 78°
2026-05-06 18:08 39.67186 165.62812 35348 ft 558 kts 78°
2026-05-06 18:09 39.68126 165.72829 35350 ft 559 kts 78°
2026-05-06 18:09 39.69057 165.82852 35359 ft 560 kts 79°
2026-05-06 18:10 39.69981 165.92891 35351 ft 560 kts 79°
2026-05-06 18:10 39.70896 166.02937 35352 ft 560 kts 79°
2026-05-06 18:11 39.71650 166.11278 35350 ft 559 kts 79°
2026-05-06 18:11 39.72699 166.23001 35357 ft 559 kts 79°
2026-05-06 18:12 39.73586 166.33024 35348 ft 558 kts 79°
2026-05-06 18:12 39.74462 166.43029 35348 ft 557 kts 79°
2026-05-06 18:13 39.75330 166.53036 35356 ft 557 kts 79°
2026-05-06 18:13 39.76189 166.63032 35349 ft 556 kts 80°
2026-05-06 18:14 39.77037 166.73011 35353 ft 555 kts 80°
2026-05-06 18:14 39.77876 166.82984 35352 ft 555 kts 80°
2026-05-06 18:15 39.78567 166.91274 35364 ft 555 kts 80°
2026-05-06 18:15 39.79528 167.02932 35354 ft 554 kts 80°
2026-05-06 18:16 39.80203 167.11215 35351 ft 554 kts 80°
2026-05-06 18:16 39.81007 167.21174 35347 ft 554 kts 80°
2026-05-06 18:17 39.81802 167.31129 35344 ft 553 kts 81°
2026-05-06 18:17 39.82587 167.41067 35344 ft 551 kts 81°
2026-05-06 18:18 39.83361 167.50975 35344 ft 550 kts 81°
2026-05-06 18:18 39.84126 167.60867 35356 ft 549 kts 81°
2026-05-06 18:19 39.84881 167.70749 35338 ft 548 kts 81°
2026-05-06 18:19 39.85626 167.80619 35341 ft 548 kts 81°
2026-05-06 18:20 39.86363 167.90478 35339 ft 547 kts 81°
2026-05-06 18:20 39.87091 168.00335 35357 ft 547 kts 82°
2026-05-06 18:21 39.87809 168.10178 35339 ft 546 kts 82°
2026-05-06 18:21 39.88517 168.20011 35337 ft 545 kts 82°
2026-05-06 18:22 39.89216 168.29815 35335 ft 544 kts 82°
2026-05-06 18:22 39.89905 168.39611 35342 ft 543 kts 82°
2026-05-06 18:23 39.90585 168.49387 35336 ft 542 kts 82°
2026-05-06 18:23 39.91256 168.59154 35334 ft 541 kts 82°
2026-05-06 18:24 39.91914 168.68852 35329 ft 541 kts 82°
2026-05-06 18:24 39.92574 168.78703 35343 ft 543 kts 82°
2026-05-06 18:25 39.93219 168.88454 35343 ft 545 kts 82°
2026-05-06 18:25 39.93862 168.98308 35341 ft 546 kts 83°
2026-05-06 18:26 39.94497 169.08184 35340 ft 547 kts 83°
2026-05-06 18:26 39.95124 169.18054 35334 ft 547 kts 83°
2026-05-06 18:27 39.95743 169.27932 35334 ft 546 kts 83°
2026-05-06 18:27 39.96353 169.37800 35333 ft 546 kts 83°
2026-05-06 18:28 39.96954 169.47649 35340 ft 545 kts 83°
2026-05-06 18:28 39.97544 169.57482 35326 ft 543 kts 83°
2026-05-06 18:29 39.98124 169.67278 35321 ft 541 kts 83°
2026-05-06 18:29 39.98694 169.77049 35320 ft 540 kts 83°
2026-05-06 18:30 39.99256 169.86809 35333 ft 539 kts 83°
2026-05-06 18:30 39.99808 169.96543 35327 ft 538 kts 83°
2026-05-06 18:31 40.00783 170.06174 35330 ft 534 kts 76°
2026-05-06 18:31 40.02198 170.15671 35329 ft 534 kts 76°
2026-05-06 18:32 40.03616 170.25175 35332 ft 533 kts 76°
2026-05-06 18:32 40.04989 170.34685 35315 ft 533 kts 76°
2026-05-06 18:33 40.06334 170.44199 35318 ft 533 kts 77°
2026-05-06 18:33 40.07668 170.53720 35325 ft 533 kts 77°
2026-05-06 18:34 40.08995 170.63236 35313 ft 533 kts 77°
2026-05-06 18:34 40.10317 170.72752 35315 ft 532 kts 77°
2026-05-06 18:35 40.11630 170.82269 35315 ft 532 kts 77°
2026-05-06 18:35 40.12922 170.91695 35311 ft 531 kts 77°
2026-05-06 18:36 40.14214 171.01176 35308 ft 530 kts 77°
2026-05-06 18:36 40.15497 171.10652 35306 ft 529 kts 77°
2026-05-06 18:37 40.16779 171.20184 35310 ft 528 kts 77°
2026-05-06 18:37 40.18036 171.29586 35323 ft 528 kts 77°
2026-05-06 18:38 40.19293 171.39051 35306 ft 529 kts 77°
2026-05-06 18:38 40.20543 171.48532 35306 ft 529 kts 77°
2026-05-06 18:39 40.21785 171.58010 35307 ft 529 kts 77°
2026-05-06 18:40 40.23636 171.72246 35300 ft 529 kts 77°
2026-05-06 18:40 40.24860 171.81746 35306 ft 529 kts 77°
2026-05-06 18:41 40.26077 171.91247 35299 ft 530 kts 77°
2026-05-06 18:41 40.27287 172.00763 35296 ft 530 kts 78°
2026-05-06 18:42 40.28489 172.10281 35300 ft 530 kts 78°
2026-05-06 18:42 40.29683 172.19800 35298 ft 530 kts 78°
2026-05-06 18:43 40.30869 172.29323 35294 ft 529 kts 78°
2026-05-06 18:43 40.32047 172.38847 35293 ft 529 kts 78°
2026-05-06 18:44 40.33216 172.48364 35292 ft 529 kts 78°
2026-05-06 18:44 40.34379 172.57892 35290 ft 529 kts 78°
2026-05-06 18:45 40.35533 172.67421 35288 ft 529 kts 78°
2026-05-06 18:45 40.36679 172.76949 35288 ft 529 kts 78°
2026-05-06 18:46 40.37817 172.86483 35292 ft 529 kts 78°
2026-05-06 18:46 40.38948 172.96025 35290 ft 529 kts 78°
2026-05-06 18:47 40.40070 173.05561 35290 ft 529 kts 78°
2026-05-06 18:47 40.41185 173.15103 35287 ft 529 kts 78°
2026-05-06 18:48 40.42285 173.24588 35286 ft 529 kts 78°
2026-05-06 18:48 40.43391 173.34204 35285 ft 529 kts 78°
2026-05-06 18:49 40.44483 173.43757 35285 ft 529 kts 79°
2026-05-06 18:49 40.45558 173.53243 35282 ft 529 kts 79°
2026-05-06 18:50 40.46633 173.62798 35286 ft 529 kts 79°
2026-05-06 18:50 40.47702 173.72365 35282 ft 529 kts 79°
2026-05-06 18:51 40.48761 173.81929 35272 ft 529 kts 79°
2026-05-06 18:51 40.49814 173.91506 35280 ft 529 kts 79°
2026-05-06 18:52 40.50859 174.01082 35269 ft 530 kts 79°
2026-05-06 18:52 40.51895 174.10655 35273 ft 530 kts 79°
2026-05-06 18:53 40.52925 174.20252 35275 ft 530 kts 79°
2026-05-06 18:53 40.53946 174.29841 35285 ft 530 kts 79°
2026-05-06 18:54 40.54962 174.39450 35268 ft 531 kts 79°
2026-05-06 18:54 40.55969 174.49065 35267 ft 531 kts 79°
2026-05-06 18:55 40.56968 174.58678 35294 ft 531 kts 79°
2026-05-06 18:55 40.57961 174.68310 35272 ft 532 kts 79°
2026-05-06 18:56 40.58947 174.77959 35260 ft 532 kts 79°
2026-05-06 18:56 40.59925 174.87616 35259 ft 532 kts 79°
2026-05-06 18:57 40.60896 174.97276 35264 ft 533 kts 80°
2026-05-06 18:57 40.61859 175.06943 35276 ft 533 kts 80°
2026-05-06 18:58 40.62815 175.16624 35259 ft 534 kts 80°
2026-05-06 18:58 40.63757 175.26248 35262 ft 534 kts 80°
2026-05-06 18:59 40.64698 175.35942 35257 ft 534 kts 80°
2026-05-06 18:59 40.65630 175.45636 35261 ft 534 kts 80°
2026-05-06 19:00 40.66555 175.55347 35253 ft 534 kts 80°
2026-05-06 19:00 40.67472 175.65052 35250 ft 534 kts 80°
2026-05-06 19:01 40.68381 175.74771 35253 ft 534 kts 80°
2026-05-06 19:01 40.69282 175.84489 35246 ft 535 kts 80°
2026-05-06 19:02 40.70175 175.94213 35244 ft 535 kts 80°
2026-05-06 19:02 40.70912 176.02304 35244 ft 535 kts 81°
2026-05-06 19:03 40.71791 176.12041 35239 ft 535 kts 81°
2026-05-06 19:03 40.72667 176.21845 35251 ft 535 kts 81°
2026-05-06 19:04 40.73524 176.31522 35241 ft 536 kts 81°
2026-05-06 19:04 40.74381 176.41289 35239 ft 536 kts 81°
2026-05-06 19:05 40.75228 176.51055 35236 ft 536 kts 81°
2026-05-06 19:05 40.76068 176.60827 35238 ft 536 kts 81°
2026-05-06 19:06 40.76899 176.70596 35239 ft 536 kts 81°
2026-05-06 19:06 40.77708 176.80201 35236 ft 536 kts 81°
2026-05-06 19:07 40.78523 176.89981 35234 ft 536 kts 81°
2026-05-06 19:07 40.79331 176.99767 35235 ft 537 kts 81°
2026-05-06 19:08 40.80130 177.09556 35227 ft 537 kts 81°
2026-05-06 19:08 40.80922 177.19363 35226 ft 537 kts 81°
2026-05-06 19:09 40.81706 177.29170 35226 ft 537 kts 81°
2026-05-06 19:09 40.82482 177.38985 35224 ft 538 kts 81°
2026-05-06 19:10 40.83249 177.48801 35223 ft 538 kts 81°
2026-05-06 19:10 40.84009 177.58639 35220 ft 538 kts 81°
2026-05-06 19:11 40.84761 177.68472 35219 ft 539 kts 82°
2026-05-06 19:11 40.85506 177.78327 35220 ft 539 kts 82°
2026-05-06 19:12 40.86242 177.88183 35205 ft 540 kts 82°
2026-05-06 19:12 40.86972 177.98066 35208 ft 540 kts 82°
2026-05-06 19:13 40.87693 178.07949 35213 ft 541 kts 82°
2026-05-06 19:13 40.88406 178.17844 35207 ft 541 kts 82°
2026-05-06 19:14 40.89111 178.27747 35207 ft 541 kts 82°
2026-05-06 19:14 40.89808 178.37652 35210 ft 542 kts 82°
2026-05-06 19:15 40.90493 178.47508 35210 ft 542 kts 82°
2026-05-06 19:15 40.91178 178.57487 35223 ft 542 kts 82°
2026-05-06 19:16 40.91852 178.67432 35205 ft 543 kts 82°
2026-05-06 19:16 40.92517 178.77389 35199 ft 543 kts 82°
2026-05-06 19:17 40.93173 178.87333 35200 ft 543 kts 82°
2026-05-06 19:17 40.93822 178.97292 35192 ft 544 kts 82°
2026-05-06 19:18 40.94458 179.07188 35194 ft 544 kts 82°
2026-05-06 19:18 40.95090 179.17160 35193 ft 544 kts 82°
2026-05-06 19:19 40.95712 179.27126 35195 ft 544 kts 82°
2026-05-06 19:19 40.96327 179.37098 35188 ft 544 kts 83°
2026-05-06 19:20 40.96934 179.47087 35186 ft 545 kts 83°
2026-05-06 19:20 40.97532 179.57083 35183 ft 545 kts 83°
2026-05-06 19:21 40.98122 179.67078 35183 ft 545 kts 83°
2026-05-06 19:21 40.98704 179.77094 35180 ft 546 kts 83°
2026-05-06 19:22 40.99276 179.87102 35174 ft 546 kts 83°
2026-05-06 19:22 40.99843 179.97135 35174 ft 546 kts 83°
2026-05-06 19:23 41.00904 -179.92956 35175 ft 543 kts 75°
2026-05-06 19:23 41.02372 -179.83154 35171 ft 543 kts 75°
2026-05-06 19:24 41.03838 -179.73338 35170 ft 543 kts 75°
2026-05-06 19:24 41.05258 -179.63501 35172 ft 544 kts 76°
2026-05-06 19:25 41.06649 -179.53656 35173 ft 544 kts 76°
2026-05-06 19:25 41.08030 -179.43796 35172 ft 544 kts 76°
2026-05-06 19:26 41.09404 -179.33949 35159 ft 544 kts 76°
2026-05-06 19:26 41.10772 -179.24094 35162 ft 544 kts 76°
2026-05-06 19:27 41.12134 -179.14227 35163 ft 544 kts 76°
2026-05-06 19:27 41.13486 -179.04355 35156 ft 544 kts 76°
2026-05-06 19:28 41.14832 -178.94468 35159 ft 544 kts 76°
2026-05-06 19:28 41.16160 -178.84640 35163 ft 545 kts 76°
2026-05-06 19:29 41.17499 -178.74668 35151 ft 546 kts 76°
2026-05-06 19:29 41.18813 -178.64819 35147 ft 546 kts 76°
2026-05-06 19:30 41.20129 -178.54882 35146 ft 546 kts 76°
2026-05-06 19:30 41.21445 -178.44876 35148 ft 547 kts 77°
2026-05-06 19:31 41.22736 -178.34991 35143 ft 547 kts 77°
2026-05-06 19:31 41.24675 -178.20023 35187 ft 551 kts 77°
2026-05-06 19:32 41.25321 -178.14998 35421 ft 552 kts 77°
2026-05-06 19:32 41.25966 -178.09965 35775 ft 551 kts 77°
2026-05-06 19:32 41.26606 -178.04947 36073 ft 551 kts 77°
2026-05-06 19:32 41.27244 -177.99926 36357 ft 551 kts 77°
2026-05-06 19:33 41.27880 -177.94909 36669 ft 551 kts 77°
2026-05-06 19:33 41.28514 -177.89886 36948 ft 551 kts 78°
2026-05-06 19:33 41.29147 -177.84859 37058 ft 553 kts 78°
2026-05-06 19:33 41.29781 -177.79802 37116 ft 555 kts 78°
2026-05-06 19:34 41.31039 -177.69706 37121 ft 552 kts 78°
2026-05-06 19:34 41.32282 -177.59655 37128 ft 550 kts 78°
2026-05-06 19:35 41.33513 -177.49627 37112 ft 549 kts 78°
2026-05-06 19:35 41.34734 -177.39615 37109 ft 548 kts 78°
2026-05-06 19:36 41.35947 -177.29594 37110 ft 549 kts 78°
2026-05-06 19:36 41.37151 -177.19567 37097 ft 550 kts 78°
2026-05-06 19:37 41.38351 -177.09498 37105 ft 551 kts 78°
2026-05-06 19:37 41.39344 -177.01113 37100 ft 552 kts 78°
2026-05-06 19:38 41.40730 -176.89300 37088 ft 553 kts 78°
2026-05-06 19:38 41.41912 -176.79151 37090 ft 554 kts 78°
2026-05-06 19:39 41.43076 -176.69067 37092 ft 555 kts 79°
2026-05-06 19:39 41.44241 -176.58900 37088 ft 555 kts 79°
2026-05-06 19:40 41.45397 -176.48729 37078 ft 555 kts 79°
2026-05-06 19:40 41.46545 -176.38550 37079 ft 555 kts 79°
2026-05-06 19:41 41.47683 -176.28366 37063 ft 555 kts 79°
2026-05-06 19:41 41.48814 -176.18172 37062 ft 555 kts 79°
2026-05-06 19:42 41.49933 -176.07990 37102 ft 555 kts 79°
2026-05-06 19:42 41.51047 -175.97783 37064 ft 555 kts 79°
2026-05-06 19:43 41.52148 -175.87594 37050 ft 555 kts 79°
2026-05-06 19:43 41.53240 -175.77407 37050 ft 554 kts 79°
2026-05-06 19:44 41.54320 -175.67244 37044 ft 553 kts 79°
2026-05-06 19:44 41.55392 -175.57072 37044 ft 553 kts 79°
2026-05-06 19:45 41.56454 -175.46914 37045 ft 553 kts 79°
2026-05-06 19:45 41.57506 -175.36755 37030 ft 553 kts 79°
2026-05-06 19:46 41.58551 -175.26575 37032 ft 553 kts 79°
2026-05-06 19:46 41.59587 -175.16389 37027 ft 554 kts 80°
2026-05-06 19:47 41.60443 -175.07903 37022 ft 555 kts 80°
2026-05-06 19:47 41.61465 -174.97684 37020 ft 555 kts 80°
2026-05-06 19:48 41.62480 -174.87449 37018 ft 556 kts 80°
2026-05-06 19:48 41.63487 -174.77190 37012 ft 557 kts 80°
2026-05-06 19:49 41.64485 -174.66934 37010 ft 557 kts 80°
2026-05-06 19:49 41.65475 -174.56659 37020 ft 557 kts 80°
2026-05-06 19:50 41.66456 -174.46379 36995 ft 557 kts 80°
2026-05-06 19:50 41.67426 -174.36109 36982 ft 556 kts 81°
2026-05-06 19:51 41.68386 -174.25852 36977 ft 555 kts 81°
2026-05-06 19:51 41.69336 -174.15610 36979 ft 554 kts 81°
2026-05-06 19:52 41.70275 -174.05379 36975 ft 554 kts 81°
2026-05-06 19:52 41.71205 -173.95142 36971 ft 554 kts 81°
2026-05-06 19:53 41.72120 -173.84977 36961 ft 554 kts 81°
2026-05-06 19:53 41.73032 -173.74730 36958 ft 555 kts 81°
2026-05-06 19:54 41.73936 -173.64473 36960 ft 555 kts 81°
2026-05-06 19:54 41.74832 -173.54200 36951 ft 556 kts 81°
2026-05-06 19:55 41.75719 -173.43920 36951 ft 556 kts 81°
2026-05-06 19:55 41.76598 -173.33622 36937 ft 556 kts 81°
2026-05-06 19:56 41.77467 -173.23330 36939 ft 556 kts 81°
2026-05-06 19:56 41.78328 -173.13028 36961 ft 556 kts 82°
2026-05-06 19:57 41.79180 -173.02723 36937 ft 556 kts 82°
2026-05-06 19:57 41.80021 -172.92422 36918 ft 555 kts 82°
2026-05-06 19:58 41.80852 -172.82136 36914 ft 554 kts 82°
2026-05-06 19:58 41.81672 -172.71876 36920 ft 553 kts 82°
2026-05-06 19:59 41.82482 -172.61619 36912 ft 553 kts 82°
2026-05-06 19:59 41.83282 -172.51377 36912 ft 552 kts 82°
2026-05-06 20:00 41.84072 -172.41137 36913 ft 552 kts 82°
2026-05-06 20:00 41.84853 -172.30894 36914 ft 552 kts 82°
2026-05-06 20:01 41.85626 -172.20648 36913 ft 552 kts 82°
2026-05-06 20:01 41.86390 -172.10387 36911 ft 553 kts 83°
2026-05-06 20:02 41.87144 -172.00121 36910 ft 553 kts 83°
2026-05-06 20:02 41.87891 -171.89838 36907 ft 554 kts 83°
2026-05-06 20:03 41.88630 -171.79542 36917 ft 554 kts 83°
2026-05-06 20:03 41.89358 -171.69248 36915 ft 554 kts 83°
2026-05-06 20:04 41.90078 -171.58949 36924 ft 554 kts 83°
2026-05-06 20:04 41.90789 -171.48652 36912 ft 553 kts 83°
2026-05-06 20:05 41.91488 -171.38369 36922 ft 552 kts 83°
2026-05-06 20:05 41.92178 -171.28113 36920 ft 551 kts 83°
2026-05-06 20:06 41.92856 -171.17872 36923 ft 550 kts 83°
2026-05-06 20:06 41.93525 -171.07638 36916 ft 550 kts 83°
2026-05-06 20:07 41.94185 -170.97407 36919 ft 550 kts 84°
2026-05-06 20:07 41.94835 -170.87179 36915 ft 550 kts 84°
2026-05-06 20:08 41.95472 -170.77012 36924 ft 549 kts 84°
2026-05-06 20:08 41.96104 -170.66780 36922 ft 550 kts 84°
2026-05-06 20:09 41.96727 -170.56543 36925 ft 550 kts 84°
2026-05-06 20:09 41.97342 -170.46293 36928 ft 550 kts 84°
2026-05-06 20:10 41.97947 -170.36038 36924 ft 551 kts 84°
2026-05-06 20:10 41.98544 -170.25776 36926 ft 551 kts 84°
2026-05-06 20:11 41.99132 -170.15507 36929 ft 551 kts 84°
2026-05-06 20:11 41.99710 -170.05252 36929 ft 549 kts 85°
2026-05-06 20:12 42.00257 -169.95024 36929 ft 548 kts 85°
2026-05-06 20:12 42.00692 -169.84804 36922 ft 547 kts 86°
2026-05-06 20:13 42.01092 -169.74607 36919 ft 546 kts 86°
2026-05-06 20:13 42.01494 -169.64432 36927 ft 545 kts 86°
2026-05-06 20:14 42.01900 -169.54260 36928 ft 545 kts 86°
2026-05-06 20:14 42.02300 -169.44077 36925 ft 545 kts 86°
2026-05-06 20:15 42.02690 -169.33895 36921 ft 546 kts 86°
2026-05-06 20:15 42.03070 -169.23697 36928 ft 546 kts 86°
2026-05-06 20:16 42.03442 -169.13483 36924 ft 547 kts 86°
2026-05-06 20:16 42.03805 -169.03258 36910 ft 547 kts 87°
2026-05-06 20:17 42.04159 -168.93022 36919 ft 547 kts 87°
2026-05-06 20:17 42.04504 -168.82788 36920 ft 548 kts 87°
2026-05-06 20:18 42.04840 -168.72557 36922 ft 547 kts 87°
2026-05-06 20:18 42.05167 -168.62331 36944 ft 546 kts 87°
2026-05-06 20:19 42.05483 -168.52121 36915 ft 545 kts 87°
2026-05-06 20:19 42.05790 -168.41962 36911 ft 542 kts 87°
2026-05-06 20:20 42.06086 -168.31850 36907 ft 540 kts 88°
2026-05-06 20:20 42.06372 -168.21767 36912 ft 538 kts 88°
2026-05-06 20:21 42.06647 -168.11778 36918 ft 538 kts 88°
2026-05-06 20:21 42.06915 -168.01719 36917 ft 538 kts 88°
2026-05-06 20:22 42.07175 -167.91655 36901 ft 539 kts 88°
2026-05-06 20:22 42.07426 -167.81570 36920 ft 540 kts 88°
2026-05-06 20:23 42.07669 -167.71457 36920 ft 541 kts 88°
2026-05-06 20:23 42.07904 -167.61310 36919 ft 543 kts 88°
2026-05-06 20:24 42.08130 -167.51149 36914 ft 544 kts 88°
2026-05-06 20:24 42.08347 -167.40980 36916 ft 544 kts 89°
2026-05-06 20:25 42.08556 -167.30801 36915 ft 544 kts 89°
2026-05-06 20:25 42.08755 -167.20633 36892 ft 543 kts 89°
2026-05-06 20:26 42.08946 -167.10464 36907 ft 543 kts 89°
2026-05-06 20:26 42.09127 -167.00309 36910 ft 543 kts 89°
2026-05-06 20:27 42.09299 -166.90160 36910 ft 542 kts 89°
2026-05-06 20:27 42.09462 -166.80031 36906 ft 541 kts 89°
2026-05-06 20:28 42.09615 -166.69914 36910 ft 540 kts 89°
2026-05-06 20:28 42.09760 -166.59805 36907 ft 540 kts 89°
2026-05-06 20:29 42.09896 -166.49705 36878 ft 540 kts 89°
2026-05-06 20:29 42.09981 -166.43007 36902 ft 540 kts 90°
2026-05-06 20:30 42.10159 -166.27818 36910 ft 542 kts 90°
2026-05-06 20:31 42.10267 -166.17666 36907 ft 543 kts 90°
2026-05-06 20:31 42.10351 -166.09214 36897 ft 544 kts 90°
2026-05-06 20:32 42.10457 -165.97364 36909 ft 545 kts 90°
2026-05-06 20:32 42.10539 -165.87158 36904 ft 545 kts 90°
2026-05-06 20:33 42.10612 -165.76944 36891 ft 546 kts 90°
2026-05-06 20:33 42.10666 -165.68381 36906 ft 546 kts 90°
2026-05-06 20:34 42.10722 -165.58163 36902 ft 546 kts 90°
2026-05-06 20:34 42.10769 -165.47936 36920 ft 546 kts 90°
2026-05-06 20:35 42.10807 -165.37784 36894 ft 545 kts 90°
2026-05-06 20:35 42.10836 -165.27587 36897 ft 544 kts 90°
2026-05-06 20:36 42.10856 -165.17416 36896 ft 543 kts 90°
2026-05-06 20:36 42.10867 -165.07257 36900 ft 542 kts 90°
2026-05-06 20:37 42.10868 -164.97122 36889 ft 541 kts 90°
2026-05-06 20:37 42.10861 -164.86973 36895 ft 542 kts 90°
2026-05-06 20:38 42.10846 -164.76832 36895 ft 542 kts 90°
2026-05-06 20:38 42.10821 -164.66669 36898 ft 543 kts 91°
2026-05-06 20:39 42.10787 -164.56498 36894 ft 544 kts 91°
2026-05-06 20:39 42.10744 -164.46312 36890 ft 544 kts 91°
2026-05-06 20:40 42.10692 -164.36115 36890 ft 544 kts 91°
2026-05-06 20:40 42.10630 -164.25927 36885 ft 544 kts 91°
2026-05-06 20:41 42.10561 -164.15739 36887 ft 544 kts 91°
2026-05-06 20:41 42.10482 -164.05558 36877 ft 544 kts 91°
2026-05-06 20:42 42.10394 -163.95377 36877 ft 543 kts 91°
2026-05-06 20:42 42.10297 -163.85205 36884 ft 543 kts 91°
2026-05-06 20:43 42.10191 -163.75031 36872 ft 543 kts 91°
2026-05-06 20:43 42.10076 -163.64860 36850 ft 544 kts 91°
2026-05-06 20:44 42.09952 -163.54696 36881 ft 543 kts 91°
2026-05-06 20:44 42.09819 -163.44537 36871 ft 542 kts 91°
2026-05-06 20:45 42.09678 -163.34384 36871 ft 542 kts 91°
2026-05-06 20:45 42.09528 -163.24249 36864 ft 541 kts 91°
2026-05-06 20:46 42.09369 -163.14126 36866 ft 541 kts 91°
2026-05-06 20:46 42.09202 -163.04078 36867 ft 541 kts 91°
2026-05-06 20:47 42.09024 -162.93894 36853 ft 541 kts 91°
2026-05-06 20:47 42.08839 -162.83844 36864 ft 540 kts 91°
2026-05-06 20:48 42.08645 -162.73744 36860 ft 540 kts 91°
2026-05-06 20:48 42.08442 -162.63641 36854 ft 540 kts 91°
2026-05-06 20:49 42.08231 -162.53555 36852 ft 539 kts 91°
2026-05-06 20:49 42.08011 -162.43478 36855 ft 538 kts 91°
2026-05-06 20:50 42.07782 -162.33419 36845 ft 537 kts 91°
2026-05-06 20:50 42.07545 -162.23387 36831 ft 536 kts 91°
2026-05-06 20:51 42.07301 -162.13379 36842 ft 535 kts 91°
2026-05-06 20:51 42.07047 -162.03384 36845 ft 534 kts 91°
2026-05-06 20:52 42.06785 -161.93392 36841 ft 534 kts 91°
2026-05-06 20:52 42.06514 -161.83390 36841 ft 535 kts 91°
2026-05-06 20:53 42.06235 -161.73379 36842 ft 536 kts 91°
2026-05-06 20:53 42.05946 -161.63366 36836 ft 536 kts 91°
2026-05-06 20:54 42.05648 -161.53336 36836 ft 536 kts 91°
2026-05-06 20:54 42.05342 -161.43311 36839 ft 536 kts 91°
2026-05-06 20:55 42.05027 -161.33290 36838 ft 536 kts 91°
2026-05-06 20:55 42.04703 -161.23290 36831 ft 535 kts 91°
2026-05-06 20:56 42.04372 -161.13290 36834 ft 535 kts 91°
2026-05-06 20:56 42.04032 -161.03312 36851 ft 534 kts 91°
2026-05-06 20:57 42.03683 -160.93343 36829 ft 533 kts 91°
2026-05-06 20:57 42.03327 -160.83393 36822 ft 532 kts 91°
2026-05-06 20:58 42.02963 -160.73467 36827 ft 531 kts 91°
2026-05-06 20:58 42.02591 -160.63557 36826 ft 530 kts 91°
2026-05-06 20:59 42.02211 -160.53657 36819 ft 530 kts 90°
2026-05-06 20:59 42.01823 -160.43779 36823 ft 528 kts 90°
2026-05-06 21:00 42.01428 -160.33921 36815 ft 528 kts 91°
2026-05-06 21:00 42.01026 -160.24144 36817 ft 527 kts 91°
2026-05-06 21:01 42.00616 -160.14325 36822 ft 526 kts 90°
2026-05-06 21:01 42.00198 -160.04516 36810 ft 525 kts 90°
2026-05-06 21:02 42.00125 -159.94739 36815 ft 521 kts 83°
2026-05-06 21:02 42.00570 -159.85043 36821 ft 520 kts 82°
2026-05-06 21:03 42.01032 -159.75338 36825 ft 520 kts 83°
2026-05-06 21:03 42.01451 -159.65641 36813 ft 519 kts 83°
2026-05-06 21:04 42.01840 -159.55950 36811 ft 519 kts 83°
2026-05-06 21:04 42.02216 -159.46273 36815 ft 518 kts 83°
2026-05-06 21:05 42.02585 -159.36608 36808 ft 518 kts 83°
2026-05-06 21:05 42.02948 -159.26936 36810 ft 517 kts 83°
2026-05-06 21:06 42.03303 -159.17273 36827 ft 518 kts 83°
2026-05-06 21:06 42.03651 -159.07591 36805 ft 518 kts 83°
2026-05-06 21:07 42.03990 -158.97906 36816 ft 519 kts 83°
2026-05-06 21:07 42.04321 -158.88209 36836 ft 519 kts 83°
2026-05-06 21:08 42.04644 -158.78507 36819 ft 519 kts 83°
2026-05-06 21:08 42.04957 -158.68868 36819 ft 519 kts 83°
2026-05-06 21:09 42.05266 -158.59100 36811 ft 519 kts 83°
2026-05-06 21:09 42.05563 -158.49476 36833 ft 518 kts 82°
2026-05-06 21:10 42.05852 -158.39792 36821 ft 517 kts 83°
2026-05-06 21:10 42.06133 -158.30139 36816 ft 516 kts 83°
2026-05-06 21:11 42.06405 -158.20511 36827 ft 515 kts 83°
2026-05-06 21:11 42.06668 -158.10912 36827 ft 513 kts 82°
2026-05-06 21:12 42.06922 -158.01341 36838 ft 510 kts 83°
2026-05-06 21:12 42.07167 -157.91815 36821 ft 508 kts 83°
2026-05-06 21:13 42.07404 -157.82323 36831 ft 507 kts 83°
2026-05-06 21:13 42.07634 -157.72849 36831 ft 507 kts 83°
2026-05-06 21:14 42.07855 -157.63363 36825 ft 507 kts 83°
2026-05-06 21:14 42.08068 -157.53892 36862 ft 506 kts 83°
2026-05-06 21:15 42.08273 -157.44411 36839 ft 507 kts 83°
2026-05-06 21:15 42.08471 -157.34923 36838 ft 507 kts 83°
2026-05-06 21:16 42.08661 -157.25426 36835 ft 508 kts 83°
2026-05-06 21:16 42.08843 -157.15925 36847 ft 509 kts 84°
2026-05-06 21:17 42.09018 -157.06390 36838 ft 509 kts 84°
2026-05-06 21:17 42.09184 -156.96866 36844 ft 509 kts 84°
2026-05-06 21:18 42.09343 -156.87347 36858 ft 508 kts 84°
2026-05-06 21:18 42.09492 -156.77912 36841 ft 507 kts 84°
2026-05-06 21:19 42.09612 -156.69981 36841 ft 506 kts 84°
2026-05-06 21:19 42.09747 -156.60525 36843 ft 505 kts 84°
2026-05-06 21:20 42.09895 -156.49548 36848 ft 504 kts 85°
2026-05-06 21:20 42.09995 -156.41655 36859 ft 503 kts 85°
2026-05-06 21:21 42.10107 -156.32253 36850 ft 502 kts 85°
2026-05-06 21:21 42.10212 -156.22869 36875 ft 501 kts 86°
2026-05-06 21:22 42.10308 -156.13509 36855 ft 500 kts 86°
2026-05-06 21:22 42.10396 -156.04150 36852 ft 499 kts 86°
2026-05-06 21:23 42.10476 -155.94869 36857 ft 499 kts 86°
2026-05-06 21:23 42.10551 -155.85462 36860 ft 499 kts 87°
2026-05-06 21:24 42.10616 -155.76118 36852 ft 500 kts 88°
2026-05-06 21:24 42.10674 -155.66821 36851 ft 500 kts 87°
2026-05-06 21:25 42.10725 -155.57459 36861 ft 500 kts 88°
2026-05-06 21:25 42.10768 -155.48091 36858 ft 500 kts 88°
2026-05-06 21:26 42.10803 -155.38724 36861 ft 500 kts 88°
2026-05-06 21:26 42.10831 -155.29341 36863 ft 501 kts 89°
2026-05-06 21:27 42.10852 -155.19984 36854 ft 497 kts 90°
2026-05-06 21:27 42.10864 -155.10716 36847 ft 494 kts 90°
2026-05-06 21:28 42.10868 -155.01481 36852 ft 494 kts 90°
2026-05-06 21:28 42.10868 -154.92233 36854 ft 492 kts 92°
2026-05-06 21:29 42.10859 -154.83053 36838 ft 488 kts 92°
2026-05-06 21:29 42.10842 -154.73958 36856 ft 485 kts 92°
2026-05-06 21:30 42.10817 -154.64891 36862 ft 484 kts 92°
2026-05-06 21:30 42.10784 -154.55841 36856 ft 483 kts 92°
2026-05-06 21:31 42.10745 -154.46787 36853 ft 484 kts 93°
2026-05-06 21:31 42.10699 -154.37725 36842 ft 484 kts 92°
2026-05-06 21:32 42.10647 -154.28659 36844 ft 484 kts 94°
2026-05-06 21:32 42.10557 -154.15090 36843 ft 482 kts 94°
2026-05-06 21:33 42.10488 -154.06075 36842 ft 481 kts 94°
2026-05-06 21:33 42.10410 -153.97081 36842 ft 480 kts 94°
2026-05-06 21:34 42.10327 -153.88100 36842 ft 479 kts 94°
2026-05-06 21:34 42.10236 -153.79153 36840 ft 478 kts 94°
2026-05-06 21:35 42.10139 -153.70210 36837 ft 477 kts 94°
2026-05-06 21:35 42.10035 -153.61285 36843 ft 476 kts 94°
2026-05-06 21:36 42.09924 -153.52373 36827 ft 476 kts 95°
2026-05-06 21:36 42.09806 -153.43455 36836 ft 476 kts 95°
2026-05-06 21:37 42.09681 -153.34585 36846 ft 478 kts 95°
2026-05-06 21:37 42.09549 -153.25636 36845 ft 479 kts 95°
2026-05-06 21:38 42.09410 -153.16665 36837 ft 480 kts 95°
2026-05-06 21:38 42.09264 -153.07687 36830 ft 480 kts 96°
2026-05-06 21:39 42.09110 -152.98702 36832 ft 480 kts 96°
2026-05-06 21:39 42.08949 -152.89712 36830 ft 480 kts 96°
2026-05-06 21:40 42.08782 -152.80728 36831 ft 480 kts 96°
2026-05-06 21:40 42.08607 -152.71745 36840 ft 479 kts 96°
2026-05-06 21:41 42.08427 -152.62774 36828 ft 478 kts 96°
2026-05-06 21:41 42.08240 -152.53841 36823 ft 477 kts 96°
2026-05-06 21:42 42.08046 -152.44936 36823 ft 475 kts 97°
2026-05-06 21:42 42.07845 -152.36055 36814 ft 474 kts 97°
2026-05-06 21:43 42.07639 -152.27187 36817 ft 473 kts 97°
2026-05-06 21:43 42.07425 -152.18336 36813 ft 473 kts 97°
2026-05-06 21:44 42.07206 -152.09506 36809 ft 472 kts 97°
2026-05-06 21:44 42.06979 -152.00674 36795 ft 472 kts 97°
2026-05-06 21:45 42.06743 -151.91861 36802 ft 471 kts 98°
2026-05-06 21:45 42.06502 -151.83118 36803 ft 471 kts 98°
2026-05-06 21:46 42.06256 -151.74308 36804 ft 471 kts 98°
2026-05-06 21:46 42.06004 -151.65501 36806 ft 471 kts 98°
2026-05-06 21:47 42.05745 -151.56692 36790 ft 471 kts 98°
2026-05-06 21:47 42.05479 -151.47881 36800 ft 471 kts 98°
2026-05-06 21:48 42.05206 -151.39068 36787 ft 471 kts 98°
2026-05-06 21:48 42.04926 -151.30258 36799 ft 471 kts 98°
2026-05-06 21:49 42.04639 -151.21448 36771 ft 472 kts 98°
2026-05-06 21:49 42.04346 -151.12634 36791 ft 472 kts 99°
2026-05-06 21:50 42.04045 -151.03811 36800 ft 472 kts 99°
2026-05-06 21:50 42.03737 -150.94971 36797 ft 473 kts 99°
2026-05-06 21:51 42.03423 -150.86138 36789 ft 473 kts 99°
2026-05-06 21:51 42.03101 -150.77294 36789 ft 473 kts 99°
2026-05-06 21:52 42.02773 -150.68459 36794 ft 473 kts 99°
2026-05-06 21:52 42.02438 -150.59618 36789 ft 473 kts 99°
2026-05-06 21:53 42.02097 -150.50789 36790 ft 473 kts 99°
2026-05-06 21:53 42.01748 -150.41956 36790 ft 473 kts 99°
2026-05-06 21:54 42.01392 -150.33112 36796 ft 474 kts 99°
2026-05-06 21:54 42.01029 -150.24257 36795 ft 475 kts 99°
2026-05-06 21:55 42.00659 -150.15391 36792 ft 475 kts 99°
2026-05-06 21:55 42.00284 -150.06569 36786 ft 476 kts 99°
2026-05-06 21:56 41.99893 -149.97683 36803 ft 476 kts 100°
2026-05-06 21:56 41.99406 -149.88804 36795 ft 477 kts 101°
2026-05-06 21:57 41.98880 -149.79909 36807 ft 477 kts 101°
2026-05-06 21:57 41.98356 -149.71020 36793 ft 478 kts 101°
2026-05-06 21:58 41.97832 -149.62110 36809 ft 479 kts 101°
2026-05-06 21:58 41.97303 -149.53174 36815 ft 480 kts 101°
2026-05-06 21:59 41.96766 -149.44216 36809 ft 481 kts 101°
2026-05-06 21:59 41.96223 -149.35248 36806 ft 481 kts 101°
2026-05-06 22:00 41.95671 -149.26279 36823 ft 481 kts 101°
2026-05-06 22:00 41.95112 -149.17321 36838 ft 482 kts 101°
2026-05-06 22:01 41.94550 -149.08417 36836 ft 482 kts 102°
2026-05-06 22:01 41.93977 -148.99453 36844 ft 482 kts 102°
2026-05-06 22:02 41.93398 -148.90498 36821 ft 481 kts 102°
2026-05-06 22:02 41.92812 -148.81540 36840 ft 481 kts 102°
2026-05-06 22:03 41.92219 -148.72587 36857 ft 482 kts 102°
2026-05-06 22:03 41.91617 -148.63621 36853 ft 483 kts 102°
2026-05-06 22:04 41.91009 -148.54642 36854 ft 483 kts 102°
2026-05-06 22:04 41.90391 -148.45653 36854 ft 483 kts 103°
2026-05-06 22:05 41.89768 -148.36674 36871 ft 483 kts 103°
2026-05-06 22:05 41.89137 -148.27691 36868 ft 483 kts 103°
2026-05-06 22:06 41.88500 -148.18722 36868 ft 482 kts 103°
2026-05-06 22:06 41.87967 -148.11281 36873 ft 482 kts 103°
2026-05-06 22:07 41.87320 -148.02349 36877 ft 481 kts 103°
2026-05-06 22:07 41.86665 -147.93419 36886 ft 481 kts 103°
2026-05-06 22:08 41.86004 -147.84498 36878 ft 480 kts 104°
2026-05-06 22:08 41.85337 -147.75587 36894 ft 480 kts 104°
2026-05-06 22:09 41.84664 -147.66688 36906 ft 480 kts 104°
2026-05-06 22:09 41.83984 -147.57794 36906 ft 479 kts 104°
2026-05-06 22:10 41.83298 -147.48912 36891 ft 479 kts 104°
2026-05-06 22:10 41.82607 -147.40040 36908 ft 478 kts 104°
2026-05-06 22:11 41.81910 -147.31196 36920 ft 477 kts 104°
2026-05-06 22:11 41.81207 -147.22365 36891 ft 476 kts 104°
2026-05-06 22:12 41.80498 -147.13546 36923 ft 476 kts 104°
2026-05-06 22:12 41.79782 -147.04725 36942 ft 477 kts 105°
2026-05-06 22:13 41.79057 -146.95881 36937 ft 478 kts 105°
2026-05-06 22:13 41.78324 -146.87027 36946 ft 478 kts 105°
2026-05-06 22:14 41.77585 -146.78170 36943 ft 479 kts 105°
2026-05-06 22:14 41.76839 -146.69309 36949 ft 479 kts 105°
2026-05-06 22:15 41.76087 -146.60463 36961 ft 478 kts 105°
2026-05-06 22:15 41.75327 -146.51606 36963 ft 478 kts 105°
2026-05-06 22:16 41.74565 -146.42814 36967 ft 478 kts 105°
2026-05-06 22:16 41.73791 -146.33972 36960 ft 479 kts 105°
2026-05-06 22:17 41.73008 -146.25105 36980 ft 480 kts 105°
2026-05-06 22:17 41.72216 -146.16209 36988 ft 483 kts 105°
2026-05-06 22:18 41.71413 -146.07273 36989 ft 484 kts 105°
2026-05-06 22:18 41.70604 -145.98323 36986 ft 484 kts 105°
2026-05-06 22:19 41.69791 -145.89406 36990 ft 482 kts 105°
2026-05-06 22:19 41.68973 -145.80514 36990 ft 480 kts 105°
2026-05-06 22:20 41.68149 -145.71656 37001 ft 479 kts 105°
2026-05-06 22:20 41.67324 -145.62838 37002 ft 476 kts 105°
2026-05-06 22:21 41.66493 -145.54062 36995 ft 475 kts 106°
2026-05-06 22:21 41.65659 -145.45319 37008 ft 474 kts 106°
2026-05-06 22:22 41.64818 -145.36588 37024 ft 473 kts 106°
2026-05-06 22:22 41.63972 -145.27862 37022 ft 473 kts 106°
2026-05-06 22:23 41.63121 -145.19144 37027 ft 473 kts 106°
2026-05-06 22:23 41.62263 -145.10435 37030 ft 473 kts 106°
2026-05-06 22:24 41.61397 -145.01720 37046 ft 473 kts 106°
2026-05-06 22:24 41.60526 -144.93007 37010 ft 473 kts 106°
2026-05-06 22:25 41.59650 -144.84309 37046 ft 473 kts 107°
2026-05-06 22:25 41.58771 -144.75668 37053 ft 473 kts 107°
2026-05-06 22:26 41.57876 -144.66916 37058 ft 472 kts 107°
2026-05-06 22:26 41.56986 -144.58289 37035 ft 472 kts 107°
2026-05-06 22:27 41.56084 -144.49606 37068 ft 472 kts 107°
2026-05-06 22:27 41.55175 -144.40931 37075 ft 472 kts 107°
2026-05-06 22:28 41.54258 -144.32246 37078 ft 472 kts 107°
2026-05-06 22:28 41.53335 -144.23556 37083 ft 473 kts 107°
2026-05-06 22:29 41.52406 -144.14879 37077 ft 472 kts 107°
2026-05-06 22:29 41.51470 -144.06196 37084 ft 473 kts 107°
2026-05-06 22:30 41.50527 -143.97518 37098 ft 473 kts 107°
2026-05-06 22:30 41.49577 -143.88833 37084 ft 473 kts 107°
2026-05-06 22:31 41.48619 -143.80145 37093 ft 473 kts 108°
2026-05-06 22:31 41.47655 -143.71463 37101 ft 474 kts 108°
2026-05-06 22:32 41.46682 -143.62757 37107 ft 474 kts 108°
2026-05-06 22:32 41.45703 -143.54059 37115 ft 475 kts 108°
2026-05-06 22:33 41.44717 -143.45358 37110 ft 475 kts 108°
2026-05-06 22:33 41.43732 -143.36723 37118 ft 475 kts 108°
2026-05-06 22:34 41.42734 -143.28030 37125 ft 474 kts 108°
2026-05-06 22:34 41.41729 -143.19342 37123 ft 474 kts 108°
2026-05-06 22:35 41.40717 -143.10663 37111 ft 474 kts 108°
2026-05-06 22:35 41.39693 -143.01928 37129 ft 474 kts 107°
2026-05-06 22:36 41.38673 -142.93297 37141 ft 476 kts 107°
2026-05-06 22:36 41.37637 -142.84588 37151 ft 477 kts 107°
2026-05-06 22:37 41.36594 -142.75866 37122 ft 477 kts 107°
2026-05-06 22:37 41.35546 -142.67152 37154 ft 477 kts 107°
2026-05-06 22:38 41.34490 -142.58438 37152 ft 477 kts 107°
2026-05-06 22:38 41.33428 -142.49737 37165 ft 476 kts 107°
2026-05-06 22:39 41.32361 -142.41043 37144 ft 476 kts 107°
2026-05-06 22:39 41.31287 -142.32361 37166 ft 476 kts 107°
2026-05-06 22:40 41.30205 -142.23669 37165 ft 477 kts 107°
2026-05-06 22:40 41.29115 -142.14966 37172 ft 478 kts 107°
2026-05-06 22:41 41.27467 -142.01900 37177 ft 478 kts 107°
2026-05-06 22:42 41.26359 -141.93183 37182 ft 478 kts 107°
2026-05-06 22:42 41.25243 -141.84467 37185 ft 478 kts 107°
2026-05-06 22:43 41.24129 -141.75812 37191 ft 478 kts 107°
2026-05-06 22:43 41.23002 -141.67110 37188 ft 477 kts 107°
2026-05-06 22:44 41.21870 -141.58429 37192 ft 477 kts 107°
2026-05-06 22:44 41.20732 -141.49752 37196 ft 476 kts 107°
2026-05-06 22:45 41.19590 -141.41101 37202 ft 476 kts 107°
2026-05-06 22:45 41.18442 -141.32453 37199 ft 475 kts 107°
2026-05-06 22:46 41.17286 -141.23800 37208 ft 476 kts 107°
2026-05-06 22:46 41.16122 -141.15140 37219 ft 477 kts 107°
2026-05-06 22:47 41.14951 -141.06474 37224 ft 478 kts 107°
2026-05-06 22:47 41.13769 -140.97780 37216 ft 479 kts 107°
2026-05-06 22:48 41.12579 -140.89082 37228 ft 481 kts 107°
2026-05-06 22:48 41.11377 -140.80350 37243 ft 482 kts 107°
2026-05-06 22:49 41.10166 -140.71591 37250 ft 483 kts 107°
2026-05-06 22:49 41.08946 -140.62819 37228 ft 483 kts 107°
2026-05-06 22:50 41.07721 -140.54062 37239 ft 484 kts 107°
2026-05-06 22:50 41.06489 -140.45309 37247 ft 484 kts 107°
2026-05-06 22:51 41.05249 -140.36549 37245 ft 483 kts 107°
2026-05-06 22:51 41.04002 -140.27794 37224 ft 483 kts 107°
2026-05-06 22:52 41.02752 -140.19060 37243 ft 483 kts 107°
2026-05-06 22:52 41.01496 -140.10334 37249 ft 483 kts 107°
2026-05-06 22:53 41.00447 -140.03082 37257 ft 483 kts 107°
2026-05-06 22:53 40.99160 -139.94361 37253 ft 483 kts 108°
2026-05-06 22:54 40.97823 -139.85657 37249 ft 482 kts 108°
2026-05-06 22:54 40.96476 -139.76959 37254 ft 482 kts 108°
2026-05-06 22:55 40.95129 -139.68268 37260 ft 483 kts 108°
2026-05-06 22:55 40.93778 -139.59571 37239 ft 483 kts 107°
2026-05-06 22:56 40.92427 -139.50910 37265 ft 484 kts 107°
2026-05-06 22:56 40.91057 -139.42178 37268 ft 486 kts 108°
2026-05-06 22:57 40.89678 -139.33429 37272 ft 487 kts 108°
2026-05-06 22:57 40.88288 -139.24660 37268 ft 488 kts 107°
2026-05-06 22:58 40.86891 -139.15888 37278 ft 488 kts 107°
2026-05-06 22:58 40.85486 -139.07115 37269 ft 488 kts 108°
2026-05-06 22:59 40.84074 -138.98344 37267 ft 488 kts 108°
2026-05-06 22:59 40.82656 -138.89578 37265 ft 488 kts 107°
2026-05-06 23:00 40.81232 -138.80821 37274 ft 488 kts 107°
2026-05-06 23:00 40.79802 -138.72076 37280 ft 488 kts 107°
2026-05-06 23:01 40.78364 -138.63322 37284 ft 488 kts 107°
2026-05-06 23:01 40.76921 -138.54580 37276 ft 488 kts 107°
2026-05-06 23:02 40.75469 -138.45832 37287 ft 488 kts 107°
2026-05-06 23:02 40.74009 -138.37081 37289 ft 489 kts 107°
2026-05-06 23:03 40.72544 -138.28336 37289 ft 489 kts 107°
2026-05-06 23:03 40.71069 -138.19584 37283 ft 489 kts 107°
2026-05-06 23:04 40.69591 -138.10844 37289 ft 489 kts 107°
2026-05-06 23:04 40.68116 -138.02173 37291 ft 488 kts 107°
2026-05-06 23:05 40.66624 -137.93440 37293 ft 488 kts 107°
2026-05-06 23:05 40.65126 -137.84722 37291 ft 488 kts 107°
2026-05-06 23:06 40.63623 -137.76012 37295 ft 488 kts 107°
2026-05-06 23:06 40.62116 -137.67317 37295 ft 487 kts 107°
2026-05-06 23:07 40.60601 -137.58626 37284 ft 487 kts 106°
2026-05-06 23:07 40.59082 -137.49942 37298 ft 487 kts 106°
2026-05-06 23:08 40.57557 -137.41274 37301 ft 486 kts 106°
2026-05-06 23:08 40.56026 -137.32612 37302 ft 486 kts 107°
2026-05-06 23:09 40.54489 -137.23954 37295 ft 486 kts 106°
2026-05-06 23:09 40.52945 -137.15301 37304 ft 486 kts 106°
2026-05-06 23:10 40.51397 -137.06657 37305 ft 486 kts 106°
2026-05-06 23:10 40.49841 -136.98013 37304 ft 486 kts 106°
2026-05-06 23:11 40.48279 -136.89379 37296 ft 486 kts 106°
2026-05-06 23:11 40.46711 -136.80747 37309 ft 486 kts 106°
2026-05-06 23:12 40.45136 -136.72118 37307 ft 486 kts 106°
2026-05-06 23:12 40.43565 -136.63546 37308 ft 486 kts 106°
2026-05-06 23:13 40.41976 -136.54921 37307 ft 486 kts 106°
2026-05-06 23:13 40.40382 -136.46299 37307 ft 486 kts 106°
2026-05-06 23:14 40.38780 -136.37683 37307 ft 486 kts 106°
2026-05-06 23:14 40.37174 -136.29074 37310 ft 486 kts 106°
2026-05-06 23:15 40.35561 -136.20475 37299 ft 486 kts 106°
2026-05-06 23:15 40.33942 -136.11875 37307 ft 486 kts 106°
2026-05-06 23:16 40.32319 -136.03292 37314 ft 486 kts 106°
2026-05-06 23:16 40.30687 -135.94705 37315 ft 486 kts 106°
2026-05-06 23:17 40.29049 -135.86120 37310 ft 485 kts 106°
2026-05-06 23:17 40.27409 -135.77560 37314 ft 485 kts 106°
2026-05-06 23:18 40.25762 -135.69002 37320 ft 484 kts 106°
2026-05-06 23:18 40.24109 -135.60454 37313 ft 484 kts 106°
2026-05-06 23:19 40.22451 -135.51914 37315 ft 484 kts 105°
2026-05-06 23:19 40.20789 -135.43388 37318 ft 484 kts 106°
2026-05-06 23:20 40.19122 -135.34872 37319 ft 483 kts 106°
2026-05-06 23:20 40.17447 -135.26350 37305 ft 483 kts 105°
2026-05-06 23:21 40.15767 -135.17845 37320 ft 483 kts 105°
2026-05-06 23:21 40.14082 -135.09347 37329 ft 483 kts 105°
2026-05-06 23:22 40.12402 -135.00905 37314 ft 483 kts 105°
2026-05-06 23:22 40.10705 -134.92417 37323 ft 483 kts 105°
2026-05-06 23:23 40.09002 -134.83936 37314 ft 483 kts 105°
2026-05-06 23:23 40.07294 -134.75462 37315 ft 482 kts 105°
2026-05-06 23:24 40.05580 -134.66996 37312 ft 482 kts 105°
2026-05-06 23:24 40.03860 -134.58535 37323 ft 482 kts 105°
2026-05-06 23:25 40.02136 -134.50084 37318 ft 482 kts 105°
2026-05-06 23:25 40.00405 -134.41635 37328 ft 482 kts 105°
2026-05-06 23:26 39.98668 -134.33193 37320 ft 482 kts 105°
2026-05-06 23:26 39.96926 -134.24761 37317 ft 482 kts 105°
2026-05-06 23:27 39.95177 -134.16329 37334 ft 482 kts 105°
2026-05-06 23:27 39.93424 -134.07908 37321 ft 482 kts 105°
2026-05-06 23:28 39.91674 -133.99536 37316 ft 482 kts 105°
2026-05-06 23:28 39.89896 -133.91068 37325 ft 482 kts 105°
2026-05-06 23:29 39.88134 -133.82707 37315 ft 482 kts 105°
2026-05-06 23:29 39.86343 -133.74237 37317 ft 482 kts 105°
2026-05-06 23:30 39.84568 -133.65879 37319 ft 483 kts 105°
2026-05-06 23:30 39.82773 -133.57462 37338 ft 483 kts 105°
2026-05-06 23:31 39.80972 -133.49048 37323 ft 483 kts 105°
2026-05-06 23:31 39.79164 -133.40636 37321 ft 483 kts 105°
2026-05-06 23:32 39.77348 -133.32217 37321 ft 483 kts 105°
2026-05-06 23:32 39.75527 -133.23808 37318 ft 483 kts 105°
2026-05-06 23:33 39.73701 -133.15408 37321 ft 483 kts 105°
2026-05-06 23:33 39.71869 -133.07010 37319 ft 483 kts 105°
2026-05-06 23:34 39.70031 -132.98621 37329 ft 483 kts 105°
2026-05-06 23:34 39.68187 -132.90237 37320 ft 483 kts 105°
2026-05-06 23:35 39.66336 -132.81850 37326 ft 483 kts 105°
2026-05-06 23:35 39.64480 -132.73475 37319 ft 483 kts 105°
2026-05-06 23:36 39.62619 -132.65107 37317 ft 483 kts 105°
2026-05-06 23:36 39.60752 -132.56743 37316 ft 482 kts 105°
2026-05-06 23:37 39.58880 -132.48393 37316 ft 482 kts 105°
2026-05-06 23:37 39.57003 -132.40047 37320 ft 482 kts 105°
2026-05-06 23:38 39.55122 -132.31714 37315 ft 482 kts 105°
2026-05-06 23:38 39.53233 -132.23377 37316 ft 482 kts 105°
2026-05-06 23:39 39.51338 -132.15045 37316 ft 482 kts 105°
2026-05-06 23:39 39.49450 -132.06775 37324 ft 482 kts 105°
2026-05-06 23:40 39.47545 -131.98458 37319 ft 482 kts 105°
2026-05-06 23:40 39.45631 -131.90135 37308 ft 482 kts 105°
2026-05-06 23:41 39.43714 -131.81830 37310 ft 482 kts 105°
2026-05-06 23:41 39.41794 -131.73537 37307 ft 482 kts 106°
2026-05-06 23:42 39.39865 -131.65242 37307 ft 482 kts 106°
2026-05-06 23:42 39.37931 -131.56950 37308 ft 482 kts 106°
2026-05-06 23:43 39.36319 -131.50063 37306 ft 482 kts 106°
2026-05-06 23:43 39.34374 -131.41776 37308 ft 482 kts 107°
2026-05-06 23:44 39.32420 -131.33488 37308 ft 482 kts 107°
2026-05-06 23:44 39.30459 -131.25200 37307 ft 482 kts 107°
2026-05-06 23:45 39.28495 -131.16923 37307 ft 482 kts 108°
2026-05-06 23:45 39.26525 -131.08650 37303 ft 482 kts 108°
2026-05-06 23:46 39.24548 -131.00383 37304 ft 482 kts 108°
2026-05-06 23:46 39.22568 -130.92128 37302 ft 482 kts 108°
2026-05-06 23:47 39.20579 -130.83866 37298 ft 482 kts 108°
2026-05-06 23:47 39.18586 -130.75613 37304 ft 482 kts 108°
2026-05-06 23:48 39.16587 -130.67370 37300 ft 482 kts 108°
2026-05-06 23:48 39.14583 -130.59127 37295 ft 482 kts 109°
2026-05-06 23:49 39.12572 -130.50888 37298 ft 482 kts 109°
2026-05-06 23:49 39.10554 -130.42650 37299 ft 482 kts 109°
2026-05-06 23:50 39.08546 -130.34479 37299 ft 482 kts 109°
2026-05-06 23:50 39.05502 -130.22143 37296 ft 482 kts 109°
2026-05-06 23:51 39.03465 -130.13924 37293 ft 482 kts 109°
2026-05-06 23:51 39.01422 -130.05705 37294 ft 482 kts 109°
2026-05-06 23:52 38.99508 -129.97437 37291 ft 483 kts 104°
2026-05-06 23:52 38.98118 -129.88990 37296 ft 483 kts 103°
2026-05-06 23:53 38.96762 -129.80520 37291 ft 484 kts 103°
2026-05-06 23:53 38.95379 -129.72066 37293 ft 484 kts 104°
2026-05-06 23:54 38.93971 -129.63611 37291 ft 484 kts 104°
2026-05-06 23:54 38.92554 -129.55172 37287 ft 484 kts 104°
2026-05-06 23:55 38.91129 -129.46727 37294 ft 484 kts 104°
2026-05-06 23:55 38.89700 -129.38285 37284 ft 484 kts 104°
2026-05-06 23:56 38.88264 -129.29844 37291 ft 484 kts 104°
2026-05-06 23:56 38.86831 -129.21455 37284 ft 484 kts 104°
2026-05-06 23:57 38.85383 -129.13021 37281 ft 484 kts 104°
2026-05-06 23:57 38.83928 -129.04584 37273 ft 484 kts 104°
2026-05-06 23:58 38.82467 -128.96149 37284 ft 484 kts 104°
2026-05-06 23:58 38.80999 -128.87714 37277 ft 484 kts 104°
2026-05-06 23:59 38.79527 -128.79296 37278 ft 484 kts 104°
2026-05-06 23:59 38.78049 -128.70881 37278 ft 484 kts 104°
2026-05-07 00:00 38.76565 -128.62468 37275 ft 484 kts 104°
2026-05-07 00:00 38.75077 -128.54067 37285 ft 484 kts 104°
2026-05-07 00:01 38.73582 -128.45667 37276 ft 484 kts 104°
2026-05-07 00:01 38.72081 -128.37271 37278 ft 484 kts 104°
2026-05-07 00:02 38.70583 -128.28928 37275 ft 484 kts 104°
2026-05-07 00:02 38.69060 -128.20485 37272 ft 484 kts 104°
2026-05-07 00:03 38.67551 -128.12155 37266 ft 484 kts 104°
2026-05-07 00:03 38.66026 -128.03770 37266 ft 484 kts 104°
2026-05-07 00:04 38.64495 -127.95389 37274 ft 484 kts 104°
2026-05-07 00:04 38.62957 -127.87012 37272 ft 484 kts 104°
2026-05-07 00:05 38.61413 -127.78631 37267 ft 484 kts 104°
2026-05-07 00:05 38.59863 -127.70259 37254 ft 484 kts 104°
2026-05-07 00:06 38.58308 -127.61892 37270 ft 484 kts 104°
2026-05-07 00:06 38.56745 -127.53521 37270 ft 484 kts 104°
2026-05-07 00:07 38.55176 -127.45148 37247 ft 485 kts 104°
2026-05-07 00:07 38.53600 -127.36778 37248 ft 485 kts 104°
2026-05-07 00:08 38.52018 -127.28411 37262 ft 485 kts 104°
2026-05-07 00:08 38.50430 -127.20042 37256 ft 485 kts 104°
2026-05-07 00:09 38.48847 -127.11735 37260 ft 485 kts 104°
2026-05-07 00:09 38.47250 -127.03388 37254 ft 484 kts 105°
2026-05-07 00:10 38.45250 -126.95204 37257 ft 483 kts 112°
2026-05-07 00:10 38.42788 -126.87231 37234 ft 483 kts 113°
2026-05-07 00:11 38.40314 -126.79268 37254 ft 484 kts 112°
2026-05-07 00:11 38.37861 -126.71281 37251 ft 484 kts 112°
2026-05-07 00:12 38.35411 -126.63274 37246 ft 484 kts 112°
2026-05-07 00:12 38.32961 -126.55278 37246 ft 485 kts 112°
2026-05-07 00:13 38.30503 -126.47287 37244 ft 485 kts 112°
2026-05-07 00:13 38.28039 -126.39304 37243 ft 485 kts 112°
2026-05-07 00:14 38.25569 -126.31322 37245 ft 485 kts 112°
2026-05-07 00:14 38.23096 -126.23353 37246 ft 484 kts 112°
2026-05-07 00:15 38.20617 -126.15390 37244 ft 484 kts 112°
2026-05-07 00:15 38.18133 -126.07431 37242 ft 484 kts 112°
2026-05-07 00:16 38.15663 -125.99540 37241 ft 484 kts 112°
2026-05-07 00:16 38.13170 -125.91600 37224 ft 484 kts 112°
2026-05-07 00:17 38.10673 -125.83666 37237 ft 484 kts 112°
2026-05-07 00:17 38.08171 -125.75740 37237 ft 483 kts 112°
2026-05-07 00:18 38.05667 -125.67831 37229 ft 483 kts 112°
2026-05-07 00:18 38.03161 -125.59932 37231 ft 483 kts 112°
2026-05-07 00:19 38.00648 -125.52036 37225 ft 483 kts 112°
2026-05-07 00:19 37.97893 -125.44281 37233 ft 482 kts 117°
2026-05-07 00:20 37.94777 -125.36757 37228 ft 482 kts 118°
2026-05-07 00:20 37.91636 -125.29235 37229 ft 483 kts 118°
2026-05-07 00:21 37.88538 -125.21683 37226 ft 484 kts 118°
2026-05-07 00:21 37.85454 -125.14096 37232 ft 485 kts 117°
2026-05-07 00:22 37.82368 -125.06512 37219 ft 485 kts 117°
2026-05-07 00:22 37.79278 -124.98939 37228 ft 485 kts 117°
2026-05-07 00:23 37.76181 -124.91377 37208 ft 484 kts 117°
2026-05-07 00:23 37.73089 -124.83843 37008 ft 481 kts 117°
2026-05-07 00:24 37.71548 -124.80096 36531 ft 478 kts 117°
2026-05-07 00:24 37.70025 -124.76398 36095 ft 473 kts 117°
2026-05-07 00:24 37.68513 -124.72731 35648 ft 468 kts 117°
2026-05-07 00:24 37.67023 -124.69121 35182 ft 464 kts 117°
2026-05-07 00:25 37.65552 -124.65559 34734 ft 460 kts 117°
2026-05-07 00:25 37.64076 -124.61994 34264 ft 457 kts 116°
2026-05-07 00:25 37.62593 -124.58415 33753 ft 453 kts 116°
2026-05-07 00:25 37.61136 -124.54899 33261 ft 450 kts 116°
2026-05-07 00:26 37.59714 -124.51469 32806 ft 446 kts 116°
2026-05-07 00:26 37.58263 -124.47979 32345 ft 442 kts 116°
2026-05-07 00:26 37.56844 -124.44563 31899 ft 438 kts 116°
2026-05-07 00:26 37.55434 -124.41174 31455 ft 435 kts 116°
2026-05-07 00:27 37.54035 -124.37817 31012 ft 431 kts 116°
2026-05-07 00:27 37.52660 -124.34522 30578 ft 428 kts 116°
2026-05-07 00:27 37.51276 -124.31211 30115 ft 426 kts 115°
2026-05-07 00:27 37.49902 -124.27923 29611 ft 423 kts 115°
2026-05-07 00:28 37.48536 -124.24658 29103 ft 420 kts 116°
2026-05-07 00:28 37.47181 -124.21424 28678 ft 416 kts 115°
2026-05-07 00:28 37.45834 -124.18210 28220 ft 413 kts 115°
2026-05-07 00:28 37.44496 -124.15023 27776 ft 411 kts 115°
2026-05-07 00:29 37.43167 -124.11859 27328 ft 408 kts 115°
2026-05-07 00:29 37.41844 -124.08713 26886 ft 406 kts 115°
2026-05-07 00:30 37.37914 -123.99383 25592 ft 400 kts 116°
2026-05-07 00:30 37.36614 -123.96303 25155 ft 398 kts 116°
2026-05-07 00:30 37.35318 -123.93236 24738 ft 397 kts 116°
2026-05-07 00:30 37.34024 -123.90174 24298 ft 396 kts 116°
2026-05-07 00:31 37.32733 -123.87122 23856 ft 396 kts 116°
2026-05-07 00:31 37.31438 -123.84068 23376 ft 395 kts 116°
2026-05-07 00:31 37.30205 -123.80996 22877 ft 391 kts 109°
2026-05-07 00:31 37.29496 -123.77733 22445 ft 385 kts 99°
2026-05-07 00:32 37.29009 -123.74441 22018 ft 383 kts 97°
2026-05-07 00:32 37.28550 -123.71156 21589 ft 381 kts 98°
2026-05-07 00:32 37.28085 -123.67902 21154 ft 379 kts 98°
2026-05-07 00:32 37.27767 -123.65743 20872 ft 378 kts 98°
2026-05-07 00:33 37.27278 -123.62510 20441 ft 376 kts 99°
2026-05-07 00:33 37.26779 -123.59293 20009 ft 374 kts 99°
2026-05-07 00:33 37.26275 -123.56091 19551 ft 374 kts 99°
2026-05-07 00:33 37.25697 -123.52448 19025 ft 372 kts 98°
2026-05-07 00:34 37.25343 -123.50227 18743 ft 370 kts 99°
2026-05-07 00:34 37.24838 -123.47070 18317 ft 368 kts 99°
2026-05-07 00:34 37.24337 -123.43945 17916 ft 363 kts 99°
2026-05-07 00:34 37.23841 -123.40858 17537 ft 358 kts 99°
2026-05-07 00:35 37.23351 -123.37804 17037 ft 358 kts 99°
2026-05-07 00:35 37.22860 -123.34750 16551 ft 356 kts 100°
2026-05-07 00:35 37.22370 -123.31715 16178 ft 353 kts 100°
2026-05-07 00:35 37.21886 -123.28722 15782 ft 349 kts 100°
2026-05-07 00:36 37.21406 -123.25752 15391 ft 345 kts 101°
2026-05-07 00:36 37.20929 -123.22800 14949 ft 344 kts 101°
2026-05-07 00:36 37.20453 -123.19867 14486 ft 344 kts 101°
2026-05-07 00:36 37.19976 -123.16941 14120 ft 340 kts 101°
2026-05-07 00:37 37.19564 -123.14046 13683 ft 333 kts 95°
2026-05-07 00:37 37.19819 -123.11184 13152 ft 328 kts 73°
2026-05-07 00:37 37.20499 -123.08514 12822 ft 323 kts 73°
2026-05-07 00:37 37.21149 -123.05853 12562 ft 316 kts 73°
2026-05-07 00:38 37.21775 -123.03240 12311 ft 310 kts 73°
2026-05-07 00:38 37.22388 -123.00658 11990 ft 307 kts 73°
2026-05-07 00:38 37.22999 -122.98080 11495 ft 310 kts 73°
2026-05-07 00:38 37.23609 -122.95497 11169 ft 307 kts 73°
2026-05-07 00:39 37.24214 -122.92935 10764 ft 307 kts 73°
2026-05-07 00:39 37.24823 -122.90348 10324 ft 310 kts 73°
2026-05-07 00:39 37.25425 -122.87785 10151 ft 301 kts 72°
2026-05-07 00:39 37.26008 -122.85302 10013 ft 292 kts 72°
2026-05-07 00:40 37.26571 -122.82898 9903 ft 282 kts 72°
2026-05-07 00:40 37.27118 -122.80560 9811 ft 277 kts 72°
2026-05-07 00:40 37.27663 -122.78228 9748 ft 282 kts 72°
2026-05-07 00:40 37.28222 -122.75840 9667 ft 288 kts 72°
2026-05-07 00:41 37.28787 -122.73424 9583 ft 288 kts 72°
2026-05-07 00:41 37.29349 -122.71014 9491 ft 286 kts 72°
2026-05-07 00:41 37.29904 -122.68631 9402 ft 284 kts 72°
2026-05-07 00:41 37.30456 -122.66256 9329 ft 282 kts 72°
2026-05-07 00:42 37.31004 -122.63892 9242 ft 281 kts 72°
2026-05-07 00:42 37.31552 -122.61534 9165 ft 281 kts 72°
2026-05-07 00:42 37.32098 -122.59179 9086 ft 281 kts 72°
2026-05-07 00:42 37.32645 -122.56825 9008 ft 281 kts 72°
2026-05-07 00:43 37.33191 -122.54467 8929 ft 281 kts 71°
2026-05-07 00:43 37.33737 -122.52108 8855 ft 281 kts 72°
2026-05-07 00:43 37.34282 -122.49745 8758 ft 282 kts 72°
2026-05-07 00:43 37.34826 -122.47384 8679 ft 281 kts 72°
2026-05-07 00:44 37.35369 -122.45031 8595 ft 280 kts 72°
2026-05-07 00:44 37.35910 -122.42679 8522 ft 279 kts 72°
2026-05-07 00:44 37.36450 -122.40336 8425 ft 279 kts 72°
2026-05-07 00:44 37.36988 -122.37999 8369 ft 279 kts 72°
2026-05-07 00:45 37.37527 -122.35656 8255 ft 279 kts 72°
2026-05-07 00:45 37.38066 -122.33306 8174 ft 279 kts 72°
2026-05-07 00:45 37.38595 -122.30992 8100 ft 271 kts 71°
2026-05-07 00:45 37.39105 -122.28759 8023 ft 260 kts 72°
2026-05-07 00:46 37.39633 -122.26594 8016 ft 261 kts 70°
2026-05-07 00:46 37.40221 -122.24422 7976 ft 262 kts 68°
2026-05-07 00:46 37.40824 -122.22260 7790 ft 260 kts 69°
2026-05-07 00:46 37.41410 -122.20137 7604 ft 254 kts 68°
2026-05-07 00:47 37.42001 -122.18070 7360 ft 251 kts 68°
2026-05-07 00:47 37.42566 -122.16023 7049 ft 251 kts 69°
2026-05-07 00:47 37.43124 -122.13942 6752 ft 246 kts 68°
2026-05-07 00:47 37.43790 -122.11970 6323 ft 245 kts 55°
2026-05-07 00:48 37.45051 -122.10559 5955 ft 243 kts 26°
2026-05-07 00:48 37.46590 -122.09721 5645 ft 242 kts 22°
2026-05-07 00:48 37.48173 -122.09000 5233 ft 241 kts 11°
2026-05-07 00:48 37.49823 -122.09141 4759 ft 247 kts 339°
2026-05-07 00:49 37.51200 -122.10441 4472 ft 247 kts 307°
2026-05-07 00:49 37.51944 -122.12345 4151 ft 245 kts 292°
2026-05-07 00:49 37.52529 -122.14302 3830 ft 229 kts 293°
2026-05-07 00:49 37.53149 -122.16084 3553 ft 223 kts 297°
2026-05-07 00:50 37.53848 -122.17819 3377 ft 216 kts 298°
2026-05-07 00:50 37.54551 -122.19494 3041 ft 217 kts 298°
2026-05-07 00:50 37.55247 -122.21151 2695 ft 209 kts 298°
2026-05-07 00:50 37.55911 -122.22730 2382 ft 197 kts 297°
2026-05-07 00:51 37.56528 -122.24203 2071 ft 187 kts 297°
2026-05-07 00:51 37.57117 -122.25602 1797 ft 175 kts 297°
2026-05-07 00:51 37.57657 -122.26895 1609 ft 160 kts 296°
2026-05-07 00:51 37.58168 -122.28104 1346 ft 150 kts 295°
2026-05-07 00:52 37.58619 -122.29182 1172 ft 132 kts 296°
2026-05-07 00:52 37.59047 -122.30205 1048 ft 133 kts 296°
2026-05-07 00:52 37.59475 -122.31230 834 ft 132 kts 298°
2026-05-07 00:52 37.59904 -122.32250 671 ft 132 kts 296°
2026-05-07 00:53 37.60320 -122.33242 486 ft 125 kts 293°
2026-05-07 00:53 37.60733 -122.34222 310 ft 128 kts 294°
2026-05-07 00:53 37.61147 -122.35211 162 ft 127 kts 295°
2026-05-07 00:53 37.61553 -122.36184 33 ft 122 kts 296°
2026-05-07 00:54 37.61906 -122.37033 27 ft 93 kts 298°
2026-05-07 00:54 37.62151 -122.37616 27 ft 58 kts 297°
2026-05-07 00:54 37.62311 -122.38000 27 ft 44 kts 298°
2026-05-07 00:54 37.62441 -122.38308 27 ft 37 kts 297°
2026-05-07 00:55 37.62503 -122.38591 27 ft 31 kts 270°
2026-05-07 00:55 37.62491 -122.38806 27 ft 18 kts 253°
2026-05-07 00:55 37.62400 -122.38912 27 ft 17 kts 209°
2026-05-07 00:55 37.62315 -122.38969 27 ft 12 kts 207°
2026-05-07 00:56 37.62250 -122.39031 27 ft 12 kts 238°
2026-05-07 00:56 37.62200 -122.39121 27 ft 13 kts 217°
2026-05-07 00:56 37.62122 -122.39178 27 ft 13 kts 207°
2026-05-07 00:56 37.62052 -122.39224 27 ft 10 kts 207°
2026-05-07 00:57 37.62007 -122.39258 27 ft 1 kts 218°
2026-05-07 00:57 37.61999 -122.39267 27 ft 2 kts 219°
2026-05-07 00:57 37.61986 -122.39280 27 ft 3 kts 218°
2026-05-07 00:57 37.61967 -122.39296 27 ft 4 kts 213°
2026-05-07 00:58 37.61945 -122.39312 27 ft 3 kts 208°
2026-05-07 00:58 37.61931 -122.39321 27 ft 0 kts 208°
2026-05-07 00:58 37.61929 -122.39323 27 ft 1 kts 208°
2026-05-07 00:58 37.61923 -122.39327 27 ft 0 kts 208°